GW2039 Weather Reports


time (UTC)temp
F
wind
direction
speed
knots
gust
knots
rain 1hr
in
rain 24hr
in
rain mn
in
humidity
%
barometer
mb
20260509000803 79 116 0.0 1.7 0.00 0.00 0.00 66 1009.0
20260509000602 79 57 0.9 1.7 0.00 0.00 0.00 66 1008.9
20260509000505 79 78 0.9 1.7 0.00 0.00 0.00 66 1008.9
20260509000403 79 95 0.9 1.7 0.00 0.00 0.00 65 1008.9
20260509000204 79 91 0.0 1.7 0.00 0.00 0.00 65 1008.9
20260509000008 79 111 0.0 0.9 0.00 0.00 0.00 65 1008.8
20260508235902 79 95 0.0 3.5 0.00 0.00 0.00 65 1008.9
20260508235802 79 349 0.0 3.5 0.00 0.00 0.00 65 1008.8
20260508235602 79 42 0.0 3.5 0.00 0.00 0.00 65 1008.8
20260508235504 79 42 0.0 3.5 0.00 0.00 0.00 65 1008.7
20260508235403 79 49 0.0 3.5 0.00 0.00 0.00 65 1008.7
20260508235305 79 49 0.9 3.5 0.00 0.00 0.00 65 1008.8
20260508235202 79 77 0.9 3.5 0.00 0.00 0.00 65 1008.7
20260508235102 79 73 0.9 3.5 0.00 0.00 0.00 65 1008.7
20260508235006 79 54 0.0 1.7 0.00 0.00 0.00 65 1008.7
20260508234903 79 70 0.0 1.7 0.00 0.00 0.00 65 1008.7
20260508234804 79 35 0.0 1.7 0.00 0.00 0.00 65 1008.8
20260508234703 79 74 0.0 1.7 0.00 0.00 0.00 65 1008.6
20260508234603 79 87 0.9 1.7 0.00 0.00 0.00 65 1008.7
20260508234504 79 30 0.9 1.7 0.00 0.00 0.00 65 1008.7
20260508234402 79 44 0.0 1.7 0.00 0.00 0.00 65 1008.6
20260508234302 79 53 0.0 1.7 0.00 0.00 0.00 65 1008.6
20260508234202 79 53 0.0 1.7 0.00 0.00 0.00 65 1008.6
20260508234103 79 52 0.0 1.7 0.00 0.00 0.00 65 1008.6
20260508234005 79 52 0.0 1.7 0.00 0.00 0.00 65 1008.6
20260508233902 79 38 0.0 1.7 0.00 0.00 0.00 65 1008.6
20260508233801 79 46 0.9 1.7 0.00 0.00 0.00 65 1008.6
20260508233604 79 51 0.9 3.5 0.00 0.00 0.00 65 1008.6
20260508233505 79 54 0.9 3.5 0.00 0.00 0.00 65 1008.6
20260508233402 79 80 0.9 3.5 0.00 0.00 0.00 65 1008.6
20260508233303 79 58 0.0 3.5 0.00 0.00 0.00 65 1008.6
20260508233203 79 36 0.0 3.5 0.00 0.00 0.00 65 1008.5
20260508233103 79 9 0.9 3.5 0.00 0.00 0.00 64 1008.6
20260508233004 79 30 0.9 3.5 0.00 0.00 0.00 64 1008.6
20260508232803 79 51 0.9 2.6 0.00 0.00 0.00 64 1008.6
20260508232702 79 42 0.9 2.6 0.00 0.00 0.00 64 1008.5
20260508232601 79 72 0.9 2.6 0.00 0.00 0.00 64 1008.5
20260508232506 79 57 0.9 2.6 0.00 0.00 0.00 64 1008.5
20260508232403 79 44 1.7 2.6 0.00 0.00 0.00 64 1008.4
20260508232307 79 30 0.9 2.6 0.00 0.00 0.00 64 1008.4
20260508232202 79 13 0.0 1.7 0.00 0.00 0.00 64 1008.4
20260508232102 79 13 0.0 1.7 0.00 0.00 0.00 64 1008.4
20260508232005 79 13 0.0 1.7 0.00 0.00 0.00 64 1008.4
20260508231903 80 13 0.0 0.9 0.00 0.00 0.00 64 1008.4
20260508231802 80 13 0.0 0.9 0.00 0.00 0.00 64 1008.4
20260508231703 80 13 0.0 0.9 0.00 0.00 0.00 64 1008.4
20260508231203 80 13 0.0 0.9 0.00 0.00 0.00 64 1008.4
20260508231104 80 13 0.0 0.9 0.00 0.00 0.00 63 1008.4
20260508231004 80 13 0.0 0.9 0.00 0.00 0.00 63 1008.4
20260508230902 80 13 0.0 1.7 0.00 0.00 0.00 63 1008.4
20260508230801 80 13 0.0 1.7 0.00 0.00 0.00 63 1008.4
20260508230703 80 13 0.0 1.7 0.00 0.00 0.00 63 1008.5
20260508230601 80 13 0.0 1.7 0.00 0.00 0.00 63 1008.4
20260508230504 80 13 0.0 1.7 0.00 0.00 0.00 63 1008.4
20260508230403 80 13 0.0 1.7 0.00 0.00 0.00 63 1008.3
20260508230302 80 13 0.0 1.7 0.00 0.00 0.00 63 1008.3
20260508230202 80 20 0.0 1.7 0.00 0.00 0.00 63 1008.4
20260508230007 80 23 0.0 0.9 0.00 0.00 0.00 63 1008.4
20260508225902 80 19 0.0 1.7 0.00 0.00 0.00 63 1008.4
20260508225802 80 19 0.0 1.7 0.00 0.00 0.00 63 1008.3
20260508225702 80 19 0.0 1.7 0.00 0.00 0.00 63 1008.4
20260508225604 80 19 0.0 2.6 0.00 0.00 0.00 63 1008.4
20260508225504 80 24 0.0 2.6 0.00 0.00 0.00 63 1008.3
20260508225401 80 24 0.0 2.6 0.00 0.00 0.00 63 1008.4
20260508225301 80 31 0.0 2.6 0.00 0.00 0.00 62 1008.4
20260508225201 80 19 0.0 2.6 0.00 0.00 0.00 62 1008.4
20260508225103 80 42 0.0 2.6 0.00 0.00 0.00 62 1008.4
20260508225005 80 42 0.9 2.6 0.00 0.00 0.00 62 1008.3
20260508224903 80 42 0.9 2.6 0.00 0.00 0.00 62 1008.3
20260508224802 80 42 0.0 2.6 0.00 0.00 0.00 62 1008.4
20260508224704 80 42 0.9 2.6 0.00 0.00 0.00 62 1008.4
20260508224603 80 75 0.9 2.6 0.00 0.00 0.00 62 1008.3
20260508224504 80 51 0.0 0.0 0.00 0.00 0.00 62 1008.3
20260508224402 80 59 0.0 0.0 0.00 0.00 0.00 62 1008.3
20260508224202 80 46 0.0 0.0 0.00 0.00 0.00 63 1008.3
20260508224103 80 87 0.0 0.0 0.00 0.00 0.00 63 1008.2
20260508224003 80 71 0.0 0.0 0.00 0.00 0.00 63 1008.4
20260508223902 80 89 0.0 0.0 0.00 0.00 0.00 63 1008.3
20260508223802 80 50 0.0 0.0 0.00 0.00 0.00 63 1008.4
20260508223701 80 50 0.0 0.0 0.00 0.00 0.00 63 1008.3
20260508223602 80 50 0.0 0.0 0.00 0.00 0.00 63 1008.3
20260508223402 80 70 0.0 0.0 0.00 0.00 0.00 63 1008.3
20260508223301 80 70 0.0 0.0 0.00 0.00 0.00 63 1008.3
20260508223202 80 70 0.0 0.0 0.00 0.00 0.00 63 1008.3
20260508223103 80 44 0.0 0.0 0.00 0.00 0.00 63 1008.3
20260508223006 80 68 0.0 0.0 0.00 0.00 0.00 63 1008.4
20260508222803 80 82 0.0 0.0 0.00 0.00 0.00 63 1008.3
20260508222703 80 77 0.0 0.0 0.00 0.00 0.00 63 1008.3
20260508222601 80 71 0.0 0.0 0.00 0.00 0.00 63 1008.3
20260508222503 80 61 0.0 0.0 0.00 0.00 0.00 63 1008.3
20260508222402 80 77 0.0 0.0 0.00 0.00 0.00 63 1008.3
20260508222204 80 21 0.0 0.0 0.00 0.00 0.00 63 1008.3
20260508221901 80 21 0.0 0.0 0.00 0.00 0.00 63 1008.4
20260508221802 80 21 0.0 0.0 0.00 0.00 0.00 63 1008.3
20260508221701 80 21 0.0 0.0 0.00 0.00 0.00 63 1008.3
20260508221601 80 21 0.0 0.0 0.00 0.00 0.00 63 1008.3
20260508221503 80 21 0.0 0.0 0.00 0.00 0.00 63 1008.4
20260508221402 80 21 0.0 0.0 0.00 0.00 0.00 63 1008.4
20260508221303 80 21 0.0 0.0 0.00 0.00 0.00 63 1008.4
20260508221201 80 21 0.0 0.0 0.00 0.00 0.00 63 1008.4
20260508221101 80 21 0.0 0.0 0.00 0.00 0.00 62 1008.3
20260508221006 80 21 0.0 0.0 0.00 0.00 0.00 62 1008.4
20260508220801 80 21 0.0 0.0 0.00 0.00 0.00 62 1008.3
20260508220701 80 21 0.0 0.0 0.00 0.00 0.00 62 1008.4
20260508220602 80 21 0.0 0.0 0.00 0.00 0.00 62 1008.4
20260508220505 80 21 0.0 0.9 0.00 0.00 0.00 62 1008.4
20260508220402 80 21 0.0 0.9 0.00 0.00 0.00 62 1008.4
20260508220202 80 21 0.0 1.7 0.00 0.00 0.00 62 1008.3
20260508220004 80 21 0.0 1.7 0.00 0.00 0.00 62 1008.4
20260508215801 80 21 0.0 1.7 0.00 0.00 0.00 62 1008.3
20260508215601 80 21 0.9 1.7 0.00 0.00 0.00 62 1008.4
20260508215503 80 21 0.9 1.7 0.00 0.00 0.00 62 1008.3
20260508215403 80 19 0.0 0.9 0.00 0.00 0.00 62 1008.3
20260508215306 80 32 0.0 0.9 0.00 0.00 0.00 62 1008.4
20260508215101 80 32 0.0 0.9 0.00 0.00 0.00 64 1008.4
20260508215007 80 32 0.0 0.0 0.00 0.00 0.00 64 1008.4
20260508214901 80 32 0.0 0.0 0.00 0.00 0.00 64 1008.4
20260508214603 80 32 0.0 0.0 0.00 0.00 0.00 63 1008.4
20260508214506 80 32 0.0 0.0 0.00 0.00 0.00 63 1008.4
20260508214404 80 32 0.0 0.0 0.00 0.00 0.00 63 1008.5
20260508214303 80 32 0.0 0.0 0.00 0.00 0.00 63 1008.5
20260508214202 80 32 0.0 0.0 0.00 0.00 0.00 63 1008.5
20260508214102 80 32 0.0 0.0 0.00 0.00 0.00 63 1008.5
20260508213901 80 32 0.0 0.0 0.00 0.00 0.00 63 1008.6
20260508213703 80 32 0.0 0.0 0.00 0.00 0.00 63 1008.6
20260508213603 80 32 0.0 0.0 0.00 0.00 0.00 63 1008.6
20260508213504 80 32 0.0 0.0 0.00 0.00 0.00 63 1008.6
20260508213401 80 32 0.0 0.0 0.00 0.00 0.00 63 1008.6
20260508213303 80 32 0.0 0.0 0.00 0.00 0.00 63 1008.6
20260508213105 80 32 0.0 0.0 0.00 0.00 0.00 63 1008.6
20260508213004 80 32 0.0 0.0 0.00 0.00 0.00 63 1008.7
20260508212801 80 32 0.0 0.0 0.00 0.00 0.00 63 1008.7
20260508212706 80 32 0.0 0.0 0.00 0.00 0.00 63 1008.7
20260508212603 80 32 0.0 0.0 0.00 0.00 0.00 63 1008.7
20260508212507 80 32 0.0 0.0 0.00 0.00 0.00 63 1008.7
20260508212406 80 32 0.0 0.9 0.00 0.00 0.00 63 1008.7
20260508212306 80 32 0.0 0.9 0.00 0.00 0.00 63 1008.7
20260508212203 80 32 0.0 0.9 0.00 0.00 0.00 63 1008.7
20260508212103 80 32 0.0 0.9 0.00 0.00 0.00 63 1008.8
20260508212006 80 32 0.0 0.9 0.00 0.00 0.00 63 1008.8
20260508211903 80 32 0.0 0.9 0.00 0.00 0.00 62 1008.7
20260508211802 80 32 0.0 0.9 0.00 0.00 0.00 62 1008.8
20260508211702 80 32 0.0 0.9 0.00 0.00 0.00 62 1008.8
20260508211602 80 32 0.0 0.9 0.00 0.00 0.00 62 1008.9
20260508211504 80 32 0.0 0.9 0.00 0.00 0.00 62 1008.8
20260508211359 80 27 0.0 0.9 0.00 0.00 0.00 62 1008.8
20260508211302 80 29 0.0 0.9 0.00 0.00 0.00 63 1008.8
20260508211203 80 29 0.0 0.9 0.00 0.00 0.00 63 1008.8
20260508211102 80 23 0.0 0.9 0.00 0.00 0.00 63 1008.8
20260508211007 80 23 0.0 0.9 0.00 0.00 0.00 63 1008.9
20260508210902 80 337 0.0 0.9 0.00 0.00 0.00 63 1008.9
20260508210803 80 337 0.0 0.9 0.00 0.00 0.00 63 1008.9
20260508210602 80 337 0.0 0.0 0.00 0.00 0.00 64 1008.8
20260508210506 80 337 0.0 0.0 0.00 0.00 0.00 64 1008.8
20260508210402 80 337 0.0 0.0 0.00 0.00 0.00 64 1008.8
20260508210304 80 337 0.0 0.0 0.00 0.00 0.00 64 1008.8
20260508210202 80 337 0.0 0.0 0.00 0.00 0.00 64 1008.9
20260508210008 80 337 0.0 0.9 0.00 0.00 0.00 64 1008.9
20260508205902 80 337 0.0 0.9 0.00 0.00 0.00 64 1008.9
20260508205704 80 337 0.0 0.9 0.00 0.00 0.00 64 1009.0
20260508205601 80 337 0.0 0.9 0.00 0.00 0.00 63 1008.9
20260508205503 80 337 0.0 0.9 0.00 0.00 0.00 63 1008.9
20260508205403 80 337 0.0 0.9 0.00 0.00 0.00 63 1008.9
20260508205202 80 337 0.0 0.0 0.00 0.00 0.00 63 1008.9
20260508205102 80 337 0.0 0.0 0.00 0.00 0.00 63 1008.9
20260508205004 80 337 0.0 0.0 0.00 0.00 0.00 63 1008.9
20260508204902 80 337 0.0 0.0 0.00 0.00 0.00 63 1008.9
20260508204702 80 337 0.0 0.0 0.00 0.00 0.00 63 1008.9
20260508204602 80 337 0.0 0.0 0.00 0.00 0.00 63 1008.9
20260508204505 80 337 0.0 0.0 0.00 0.00 0.00 63 1008.9
20260508204302 80 337 0.0 0.0 0.00 0.00 0.00 63 1008.9
20260508204201 80 337 0.0 0.0 0.00 0.00 0.00 63 1008.9
20260508204103 80 337 0.0 0.0 0.00 0.00 0.00 63 1008.9
20260508204005 80 337 0.0 0.0 0.00 0.00 0.00 63 1008.9
20260508203903 80 337 0.0 0.0 0.00 0.00 0.00 63 1008.9
20260508203703 80 337 0.0 0.0 0.00 0.00 0.00 63 1008.9
20260508203601 80 337 0.0 0.0 0.00 0.00 0.00 63 1008.9
20260508203404 80 337 0.0 0.0 0.00 0.00 0.00 63 1008.9
20260508203302 80 337 0.0 0.0 0.00 0.00 0.00 63 1008.9
20260508203203 80 337 0.0 0.0 0.00 0.00 0.00 63 1008.9
20260508203102 80 337 0.0 0.0 0.00 0.00 0.00 62 1008.9
20260508203007 80 337 0.0 0.0 0.00 0.00 0.00 62 1008.9
20260508202901 80 337 0.0 0.0 0.00 0.00 0.00 62 1008.9
20260508202702 80 337 0.0 0.0 0.00 0.00 0.00 62 1009.0
20260508202605 80 337 0.0 0.0 0.00 0.00 0.00 62 1009.0
20260508202306 80 337 0.0 0.0 0.00 0.00 0.00 62 1009.0
20260508202202 80 337 0.0 0.0 0.00 0.00 0.00 62 1009.0
20260508202104 80 337 0.0 0.0 0.00 0.00 0.00 62 1009.0
20260508202005 80 337 0.0 0.0 0.00 0.00 0.00 62 1009.0
20260508201902 80 337 0.0 0.0 0.00 0.00 0.00 62 1009.0
20260508201802 80 337 0.0 0.0 0.00 0.00 0.00 62 1009.0
20260508201703 80 337 0.0 0.9 0.00 0.00 0.00 62 1009.0
20260508201602 80 337 0.0 0.9 0.00 0.00 0.00 62 1009.0
20260508201505 80 337 0.0 0.9 0.00 0.00 0.00 62 1009.0
20260508201403 80 337 0.0 0.9 0.00 0.00 0.00 61 1009.0
20260508201202 80 337 0.0 0.9 0.00 0.00 0.00 61 1009.0
20260508201005 80 337 0.0 0.9 0.00 0.00 0.00 61 1009.0
20260508200904 80 337 0.0 0.9 0.00 0.00 0.00 61 1009.0
20260508200802 80 337 0.0 0.9 0.00 0.00 0.00 61 1009.0
20260508200701 80 337 0.0 1.7 0.00 0.00 0.00 61 1009.0
20260508200602 80 337 0.0 1.7 0.00 0.00 0.00 61 1009.0
20260508200505 80 337 0.0 1.7 0.00 0.00 0.00 61 1008.9
20260508200404 80 337 0.0 1.7 0.00 0.00 0.00 60 1008.9
20260508200303 80 337 0.0 1.7 0.00 0.00 0.00 60 1009.1
20260508200201 80 337 0.0 1.7 0.00 0.00 0.00 60 1009.0
20260508200103 80 337 0.0 1.7 0.00 0.00 0.00 60 1009.0
20260508200010 80 337 0.0 1.7 0.00 0.00 0.00 60 1009.0
20260508195904 80 337 0.9 2.6 0.00 0.00 0.00 60 1009.1
20260508195804 80 348 0.9 2.6 0.00 0.00 0.00 60 1009.0
20260508195703 80 355 0.0 2.6 0.00 0.00 0.00 60 1009.1
20260508195603 80 5 0.0 2.6 0.00 0.00 0.00 59 1009.1
20260508195504 80 360 0.0 2.6 0.00 0.00 0.00 59 1009.1
20260508195404 80 26 0.9 2.6 0.00 0.00 0.00 59 1009.1
20260508195306 81 350 0.9 2.6 0.00 0.00 0.00 59 1009.1
20260508195203 81 348 0.0 2.6 0.00 0.00 0.00 59 1009.1
20260508195103 81 348 0.9 2.6 0.00 0.00 0.00 59 1009.1
20260508194904 81 355 0.0 1.7 0.00 0.00 0.00 58 1009.1
20260508194704 81 355 0.0 1.7 0.00 0.00 0.00 58 1009.1
20260508194604 81 355 0.0 1.7 0.00 0.00 0.00 58 1009.1
20260508194402 81 346 0.0 1.7 0.00 0.00 0.00 57 1009.2
20260508194304 81 346 0.0 2.6 0.00 0.00 0.00 57 1009.2
20260508194203 81 346 0.0 2.6 0.00 0.00 0.00 57 1009.2
20260508194105 81 346 0.0 2.6 0.00 0.00 0.00 57 1009.1
20260508194005 81 346 0.0 2.6 0.00 0.00 0.00 57 1009.1
20260508193904 81 346 0.0 2.6 0.00 0.00 0.00 57 1009.1
20260508193804 81 346 0.0 2.6 0.00 0.00 0.00 57 1009.1
20260508193704 81 346 0.9 2.6 0.00 0.00 0.00 57 1009.2
20260508193605 81 355 1.7 2.6 0.00 0.00 0.00 56 1009.2
20260508193507 81 355 0.9 2.6 0.00 0.00 0.00 56 1009.2
20260508193305 81 350 0.0 1.7 0.00 0.00 0.00 56 1009.2
20260508193204 81 350 0.0 1.7 0.00 0.00 0.00 56 1009.2
20260508193103 81 350 0.0 1.7 0.00 0.00 0.00 56 1009.3
20260508192904 82 350 0.9 1.7 0.00 0.00 0.00 56 1009.2
20260508192803 82 350 0.9 1.7 0.00 0.00 0.00 56 1009.2
20260508192704 82 350 0.9 1.7 0.00 0.00 0.00 56 1009.3
20260508192604 82 350 0.0 0.9 0.00 0.00 0.00 56 1009.2
20260508192405 82 350 0.9 0.9 0.00 0.00 0.00 56 1009.2
20260508192305 82 350 0.9 0.9 0.00 0.00 0.00 56 1009.3
20260508192203 82 350 0.9 0.9 0.00 0.00 0.00 56 1009.3
20260508192104 82 350 0.0 0.9 0.00 0.00 0.00 56 1009.3
20260508191804 82 350 0.9 0.9 0.00 0.00 0.00 55 1009.3
20260508191702 82 21 0.0 0.9 0.00 0.00 0.00 55 1009.3
20260508191602 82 21 0.0 0.9 0.00 0.00 0.00 55 1009.3
20260508191404 82 21 0.0 0.9 0.00 0.00 0.00 55 1009.2
20260508191302 82 21 0.0 0.9 0.00 0.00 0.00 55 1009.3
20260508191204 82 21 0.0 0.9 0.00 0.00 0.00 55 1009.2
20260508191104 82 21 0.0 0.9 0.00 0.00 0.00 54 1009.2
20260508191007 82 21 0.0 0.9 0.00 0.00 0.00 54 1009.2
20260508190903 83 20 0.0 0.9 0.00 0.00 0.00 55 1009.2
20260508190803 83 16 0.0 0.9 0.00 0.00 0.00 55 1009.2
20260508190704 83 24 0.0 0.9 0.00 0.00 0.00 55 1009.2
20260508190604 83 24 0.0 0.9 0.00 0.00 0.00 55 1009.2
20260508190506 83 24 0.0 0.9 0.00 0.00 0.00 55 1009.2
20260508190205 83 24 0.0 0.9 0.00 0.00 0.00 54 1009.2
20260508190104 83 24 0.0 0.9 0.00 0.00 0.00 54 1009.2
20260508190006 83 24 0.0 0.0 0.00 0.00 0.00 54 1009.3
20260508185704 83 24 0.0 0.0 0.00 0.00 0.00 53 1009.4
20260508185603 83 24 0.0 0.0 0.00 0.00 0.00 53 1009.4
20260508185403 83 24 0.0 0.0 0.00 0.00 0.00 53 1009.4
20260508185306 83 28 0.0 0.0 0.00 0.00 0.00 53 1009.4
20260508185102 83 28 0.0 0.0 0.00 0.00 0.00 53 1009.4
20260508185006 83 28 0.0 0.0 0.00 0.00 0.00 52 1009.4
20260508184903 83 28 0.0 0.0 0.00 0.00 0.00 52 1009.4
20260508184803 83 28 0.0 0.0 0.00 0.00 0.00 52 1009.4
20260508184703 83 28 0.0 0.9 0.00 0.00 0.00 52 1009.4
20260508184602 83 28 0.0 0.9 0.00 0.00 0.00 52 1009.4
20260508184505 83 28 0.0 0.9 0.00 0.00 0.00 52 1009.4
20260508184403 83 28 0.0 0.9 0.00 0.00 0.00 52 1009.4
20260508184302 83 28 0.0 0.9 0.00 0.00 0.00 52 1009.4
20260508184203 83 28 0.0 1.7 0.00 0.00 0.00 52 1009.4
20260508184102 83 28 0.0 2.6 0.00 0.00 0.00 52 1009.5
20260508184007 83 28 0.0 2.6 0.00 0.00 0.00 51 1009.4
20260508183803 83 28 0.0 2.6 0.00 0.00 0.00 51 1009.4
20260508183603 83 28 0.0 3.5 0.00 0.00 0.00 51 1009.4
20260508183504 83 28 0.0 3.5 0.00 0.00 0.00 51 1009.5
20260508183403 83 71 0.9 3.5 0.00 0.00 0.00 51 1009.4
20260508183303 83 61 1.7 3.5 0.00 0.00 0.00 51 1009.5
20260508183202 83 74 1.7 3.5 0.00 0.00 0.00 51 1009.5
20260508183103 83 52 0.9 3.5 0.00 0.00 0.00 51 1009.5
20260508183005 83 73 0.9 3.5 0.00 0.00 0.00 51 1009.5
20260508182903 83 40 0.9 3.5 0.00 0.00 0.00 50 1009.6
20260508182803 83 41 0.0 3.5 0.00 0.00 0.00 51 1009.6
20260508182703 83 70 0.9 3.5 0.00 0.00 0.00 50 1009.5
20260508182603 83 53 0.9 3.5 0.00 0.00 0.00 50 1009.6
20260508182504 83 63 0.9 3.5 0.00 0.00 0.00 50 1009.6
20260508182403 83 111 0.9 3.5 0.00 0.00 0.00 50 1009.5
20260508182306 84 71 0.9 3.5 0.00 0.00 0.00 50 1009.5
20260508182202 84 69 0.9 3.5 0.00 0.00 0.00 50 1009.5
20260508182103 84 55 0.9 2.6 0.00 0.00 0.00 50 1009.5
20260508181902 84 88 0.9 2.6 0.00 0.00 0.00 50 1009.6
20260508181603 84 95 0.9 2.6 0.00 0.00 0.00 50 1009.6
20260508181504 84 67 0.9 2.6 0.00 0.00 0.00 50 1009.5
20260508181302 84 105 0.0 2.6 0.00 0.00 0.00 50 1009.6
20260508181203 84 72 0.9 2.6 0.00 0.00 0.00 50 1009.5
20260508181103 84 107 0.0 2.6 0.00 0.00 0.00 50 1009.6
20260508181006 84 84 0.9 2.6 0.00 0.00 0.00 50 1009.5
20260508180903 84 74 1.7 2.6 0.00 0.00 0.00 50 1009.5
20260508180803 84 82 0.9 2.6 0.00 0.00 0.00 50 1009.5
20260508180703 84 120 0.9 2.6 0.00 0.00 0.00 50 1009.5
20260508180505 84 81 1.7 2.6 0.00 0.00 0.00 50 1009.5
20260508180303 84 90 1.7 2.6 0.00 0.00 0.00 49 1009.5
20260508180202 84 107 0.9 2.6 0.00 0.00 0.00 49 1009.5
20260508180103 84 101 0.9 2.6 0.00 0.00 0.00 49 1009.5
20260508180007 84 88 0.9 2.6 0.00 0.00 0.00 49 1009.5
20260508175903 84 93 0.9 2.6 0.00 0.00 0.00 49 1009.6
20260508175803 84 63 0.9 2.6 0.00 0.00 0.00 49 1009.6
20260508175703 84 50 0.9 2.6 0.00 0.00 0.00 49 1009.6
20260508175602 84 71 0.0 2.6 0.00 0.00 0.00 49 1009.6
20260508175504 84 87 0.0 2.6 0.00 0.00 0.00 49 1009.7
20260508175402 84 87 0.9 2.6 0.00 0.00 0.00 49 1009.7
20260508175305 84 92 1.7 2.6 0.00 0.00 0.00 49 1009.7
20260508175202 84 104 0.9 2.6 0.00 0.00 0.00 49 1009.7
20260508175102 84 102 0.9 2.6 0.00 0.00 0.00 49 1009.7
20260508175006 84 88 0.9 3.5 0.00 0.00 0.00 49 1009.7
20260508174903 85 86 0.9 3.5 0.00 0.00 0.00 49 1009.7
20260508174703 85 99 0.9 3.5 0.00 0.00 0.00 49 1009.6
20260508174604 85 90 0.9 3.5 0.00 0.00 0.00 49 1009.8
20260508174505 85 77 0.9 3.5 0.00 0.00 0.00 49 1009.8
20260508174405 85 94 0.9 3.5 0.00 0.00 0.00 49 1009.8
20260508174302 85 105 1.7 3.5 0.00 0.00 0.00 49 1009.8
20260508174202 85 90 1.7 3.5 0.00 0.00 0.00 49 1009.7
20260508174103 85 90 0.9 2.6 0.00 0.00 0.00 49 1009.8
20260508174007 85 66 0.9 2.6 0.00 0.00 0.00 49 1009.8
20260508173903 85 68 0.9 2.6 0.00 0.00 0.00 49 1009.8
20260508173802 85 96 0.9 2.6 0.00 0.00 0.00 49 1009.9
20260508173705 85 55 0.9 2.6 0.00 0.00 0.00 49 1009.8
20260508173603 85 103 0.9 2.6 0.00 0.00 0.00 48 1009.8
20260508173505 85 82 0.9 2.6 0.00 0.00 0.00 48 1009.9
20260508173402 85 76 0.9 2.6 0.00 0.00 0.00 48 1009.8
20260508173303 85 101 0.9 2.6 0.00 0.00 0.00 48 1009.9
20260508173202 85 71 0.9 2.6 0.00 0.00 0.00 48 1009.8
20260508173103 85 93 0.9 2.6 0.00 0.00 0.00 48 1009.8
20260508173006 85 85 0.9 2.6 0.00 0.00 0.00 48 1009.8
20260508172903 85 94 0.0 2.6 0.00 0.00 0.00 48 1009.8
20260508172803 85 128 0.9 2.6 0.00 0.00 0.00 48 1009.8
20260508172703 85 89 1.7 2.6 0.00 0.00 0.00 48 1009.8
20260508172603 85 110 1.7 2.6 0.00 0.00 0.00 48 1009.8
20260508172508 85 107 0.9 2.6 0.00 0.00 0.00 48 1009.8
20260508172307 85 91 0.9 2.6 0.00 0.00 0.00 48 1009.9
20260508172203 85 87 0.9 2.6 0.00 0.00 0.00 48 1009.9
20260508172103 85 104 0.9 2.6 0.00 0.00 0.00 48 1009.8
20260508172006 85 74 0.9 2.6 0.00 0.00 0.00 48 1009.9
20260508171904 85 90 0.9 3.5 0.00 0.00 0.00 48 1009.9
20260508171803 85 83 0.9 3.5 0.00 0.00 0.00 48 1009.8
20260508171702 85 79 0.9 3.5 0.00 0.00 0.00 48 1009.9
20260508171603 85 97 0.9 3.5 0.00 0.00 0.00 48 1009.8
20260508171504 85 74 0.9 3.5 0.00 0.00 0.00 48 1009.8
20260508171403 85 120 0.9 3.5 0.00 0.00 0.00 48 1009.8
20260508171304 85 132 0.9 3.5 0.00 0.00 0.00 48 1009.7
20260508171203 85 107 1.7 3.5 0.00 0.00 0.00 48 1009.8
20260508171006 85 135 1.7 3.5 0.00 0.00 0.00 48 1009.8
20260508170803 85 98 1.7 4.3 0.00 0.00 0.00 48 1009.8
20260508170703 85 144 0.9 4.3 0.00 0.00 0.00 48 1009.8
20260508170603 85 97 0.9 4.3 0.00 0.00 0.00 48 1009.7
20260508170505 85 111 1.7 4.3 0.00 0.00 0.00 48 1009.7
20260508170304 85 115 1.7 4.3 0.00 0.00 0.00 48 1009.8
20260508170006 85 108 1.7 4.3 0.00 0.00 0.00 48 1009.7
20260508165903 85 109 1.7 3.5 0.00 0.00 0.00 48 1009.8
20260508165802 85 80 2.6 3.5 0.00 0.00 0.00 48 1009.8
20260508165602 85 80 1.7 3.5 0.00 0.00 0.00 48 1009.8
20260508165505 85 103 1.7 3.5 0.00 0.00 0.00 48 1009.8
20260508165402 85 97 1.7 3.5 0.00 0.00 0.00 48 1009.9
20260508165306 85 157 1.7 3.5 0.00 0.00 0.00 48 1009.8
20260508165203 85 120 1.7 3.5 0.00 0.00 0.00 48 1009.7
20260508165103 85 100 1.7 6.1 0.00 0.00 0.00 48 1009.8
20260508165006 85 109 1.7 6.1 0.00 0.00 0.00 48 1009.8
20260508164803 85 103 1.7 6.1 0.00 0.00 0.00 47 1009.7
20260508164703 85 127 1.7 6.1 0.00 0.00 0.00 48 1009.8
20260508164506 85 123 1.7 6.1 0.00 0.00 0.00 48 1009.7
20260508164403 85 103 2.6 6.1 0.00 0.00 0.00 48 1009.7
20260508164304 85 105 2.6 6.1 0.00 0.00 0.00 48 1009.8
20260508164203 85 110 2.6 6.1 0.00 0.00 0.00 48 1009.8
20260508164103 85 90 3.5 6.1 0.00 0.00 0.00 48 1009.8
20260508164006 85 98 2.6 6.1 0.00 0.00 0.00 48 1009.7
20260508163903 85 104 2.6 6.1 0.00 0.00 0.00 48 1009.8
20260508163803 85 83 1.7 5.2 0.00 0.00 0.00 48 1009.7
20260508163604 85 109 1.7 5.2 0.00 0.00 0.00 48 1009.7
20260508163505 85 120 0.9 3.5 0.00 0.00 0.00 48 1009.8
20260508163402 85 97 1.7 3.5 0.00 0.00 0.00 48 1009.8
20260508163203 85 121 1.7 3.5 0.00 0.00 0.00 48 1009.8
20260508163102 85 109 1.7 3.5 0.00 0.00 0.00 48 1009.8
20260508163006 85 115 1.7 3.5 0.00 0.00 0.00 48 1009.8
20260508162802 85 121 1.7 3.5 0.00 0.00 0.00 48 1009.8
20260508162703 86 126 1.7 3.5 0.00 0.00 0.00 48 1009.8
20260508162602 86 112 1.7 3.5 0.00 0.00 0.00 48 1009.8
20260508162504 86 128 1.7 3.5 0.00 0.00 0.00 48 1009.8
20260508162403 86 132 1.7 3.5 0.00 0.00 0.00 48 1009.8
20260508162306 86 127 1.7 3.5 0.00 0.00 0.00 48 1009.8
20260508162203 86 101 1.7 3.5 0.00 0.00 0.00 48 1009.8
20260508161903 86 105 1.7 3.5 0.00 0.00 0.00 48 1009.8
20260508161802 86 108 1.7 3.5 0.00 0.00 0.00 48 1009.8
20260508161703 86 103 1.7 3.5 0.00 0.00 0.00 48 1009.8
20260508161602 86 94 1.7 3.5 0.00 0.00 0.00 48 1009.8
20260508161402 86 111 1.7 3.5 0.00 0.00 0.00 48 1009.8
20260508161303 86 84 2.6 3.5 0.00 0.00 0.00 48 1009.9
20260508161203 86 97 1.7 3.5 0.00 0.00 0.00 48 1009.8
20260508161103 86 109 1.7 3.5 0.00 0.00 0.00 48 1009.8
20260508161005 86 106 1.7 5.2 0.00 0.00 0.00 48 1009.8
20260508160902 86 85 1.7 5.2 0.00 0.00 0.00 48 1009.9
20260508160803 86 80 1.7 5.2 0.00 0.00 0.00 48 1009.8
20260508160702 86 136 1.7 5.2 0.00 0.00 0.00 48 1009.8
20260508160603 86 112 1.7 5.2 0.00 0.00 0.00 47 1009.8
20260508160506 86 89 1.7 5.2 0.00 0.00 0.00 47 1009.8
20260508160406 86 129 1.7 5.2 0.00 0.00 0.00 47 1009.8
20260508160303 86 119 1.7 5.2 0.00 0.00 0.00 47 1009.7
20260508160203 86 103 1.7 5.2 0.00 0.00 0.00 47 1009.8
20260508160005 86 123 1.7 5.2 0.00 0.00 0.00 47 1009.8
20260508155902 86 113 1.7 5.2 0.00 0.00 0.00 47 1009.7
20260508155803 86 90 1.7 5.2 0.00 0.00 0.00 47 1009.7
20260508155702 86 117 1.7 5.2 0.00 0.00 0.00 47 1009.7
20260508155602 86 135 2.6 5.2 0.00 0.00 0.00 47 1009.7
20260508155504 86 84 1.7 5.2 0.00 0.00 0.00 47 1009.7
20260508155403 86 97 1.7 5.2 0.00 0.00 0.00 47 1009.7
20260508155305 86 96 1.7 4.3 0.00 0.00 0.00 47 1009.7
20260508155204 86 92 1.7 4.3 0.00 0.00 0.00 47 1009.7
20260508155103 86 139 1.7 4.3 0.00 0.00 0.00 47 1009.7
20260508155005 86 92 1.7 4.3 0.00 0.00 0.00 47 1009.6
20260508154903 86 111 2.6 5.2 0.00 0.00 0.00 47 1009.6
20260508154702 86 138 1.7 5.2 0.00 0.00 0.00 47 1009.6
20260508154602 86 96 1.7 5.2 0.00 0.00 0.00 47 1009.6
20260508154518 86 110 2.6 5.2 0.00 0.00 0.00 48 1009.7
20260508154402 86 131 2.6 5.2 0.00 0.00 0.00 48 1009.6
20260508154203 86 116 0.9 6.1 0.00 0.00 0.00 48 1009.6
20260508154006 86 88 2.6 6.1 0.00 0.00 0.00 48 1009.6
20260508153903 86 107 2.6 6.1 0.00 0.00 0.00 48 1009.6
20260508153802 86 105 1.7 6.1 0.00 0.00 0.00 48 1009.5
20260508153703 86 85 2.6 6.1 0.00 0.00 0.00 48 1009.5
20260508153603 86 130 2.6 6.1 0.00 0.00 0.00 48 1009.5
20260508153505 86 123 2.6 6.1 0.00 0.00 0.00 48 1009.6
20260508153403 86 80 2.6 6.1 0.00 0.00 0.00 48 1009.6
20260508153303 86 107 1.7 3.5 0.00 0.00 0.00 49 1009.6
20260508153203 86 132 1.7 3.5 0.00 0.00 0.00 48 1009.6
20260508153103 86 126 2.6 3.5 0.00 0.00 0.00 49 1009.6
20260508153006 86 143 1.7 3.5 0.00 0.00 0.00 49 1009.6
20260508152903 86 108 2.6 3.5 0.00 0.00 0.00 49 1009.6
20260508152702 86 101 0.9 3.5 0.00 0.00 0.00 49 1009.6
20260508152602 86 84 1.7 3.5 0.00 0.00 0.00 49 1009.6
20260508152505 86 107 1.7 3.5 0.00 0.00 0.00 49 1009.6
20260508152402 86 55 0.9 3.5 0.00 0.00 0.00 49 1009.6
20260508152305 86 147 1.7 3.5 0.00 0.00 0.00 49 1009.6
20260508152202 86 121 1.7 3.5 0.00 0.00 0.00 49 1009.6
20260508152103 86 92 1.7 3.5 0.00 0.00 0.00 49 1009.7
20260508152006 86 97 1.7 3.5 0.00 0.00 0.00 48 1009.7
20260508151903 86 88 1.7 3.5 0.00 0.00 0.00 49 1009.6
20260508151803 86 92 1.7 3.5 0.00 0.00 0.00 48 1009.6
20260508151704 86 111 1.7 3.5 0.00 0.00 0.00 48 1009.7
20260508151604 86 84 1.7 3.5 0.00 0.00 0.00 48 1009.6
20260508151507 86 107 1.7 3.5 0.00 0.00 0.00 48 1009.6
20260508151405 86 107 1.7 3.5 0.00 0.00 0.00 48 1009.5
20260508151203 86 89 1.7 3.5 0.00 0.00 0.00 48 1009.5
20260508151102 86 105 1.7 3.5 0.00 0.00 0.00 48 1009.6
20260508151008 86 96 1.7 3.5 0.00 0.00 0.00 48 1009.6
20260508150802 86 100 0.9 3.5 0.00 0.00 0.00 48 1009.5
20260508150702 86 105 1.7 3.5 0.00 0.00 0.00 48 1009.5
20260508150504 86 132 0.9 3.5 0.00 0.00 0.00 48 1009.5
20260508150402 86 86 0.9 3.5 0.00 0.00 0.00 48 1009.5
20260508150303 86 74 0.9 3.5 0.00 0.00 0.00 48 1009.5
20260508150202 86 82 0.9 3.5 0.00 0.00 0.00 48 1009.4
20260508150007 86 75 2.6 3.5 0.00 0.00 0.00 48 1009.4
20260508145904 87 96 1.7 3.5 0.00 0.00 0.00 48 1009.4
20260508145806 87 96 1.7 2.6 0.00 0.00 0.00 48 1009.4
20260508145705 87 90 0.9 3.5 0.00 0.00 0.00 48 1009.4
20260508145604 87 103 1.7 3.5 0.00 0.00 0.00 48 1009.4
20260508145307 87 91 0.9 3.5 0.00 0.00 0.00 48 1009.3
20260508145203 87 96 0.9 3.5 0.00 0.00 0.00 48 1009.4
20260508145103 87 77 1.7 3.5 0.00 0.00 0.00 48 1009.2
20260508145006 87 98 2.6 3.5 0.00 0.00 0.00 48 1009.2
20260508144904 87 90 2.6 3.5 0.00 0.00 0.00 47 1009.2
20260508144705 87 109 1.7 6.1 0.00 0.00 0.00 47 1009.2
20260508144604 87 99 1.7 6.1 0.00 0.00 0.00 47 1009.2
20260508144405 87 113 1.7 6.1 0.00 0.00 0.00 47 1009.2
20260508144303 87 113 2.6 6.1 0.00 0.00 0.00 47 1009.2
20260508144203 87 132 2.6 6.1 0.00 0.00 0.00 47 1009.1
20260508144104 87 103 2.6 6.1 0.00 0.00 0.00 47 1009.1
20260508144008 87 128 3.5 6.1 0.00 0.00 0.00 47 1009.2
20260508143903 87 80 2.6 3.5 0.00 0.00 0.00 47 1009.1
20260508143804 87 92 1.7 3.5 0.00 0.00 0.00 47 1009.1
20260508143703 87 111 1.7 3.5 0.00 0.00 0.00 47 1009.1
20260508143605 87 77 1.7 3.5 0.00 0.00 0.00 47 1009.1
20260508143506 87 121 1.7 3.5 0.00 0.00 0.00 47 1009.1
20260508143404 87 98 1.7 3.5 0.00 0.00 0.00 47 1009.1
20260508143204 87 142 1.7 3.5 0.00 0.00 0.00 46 1009.1
20260508142907 88 131 1.7 3.5 0.00 0.00 0.00 47 1009.1
20260508142803 88 150 1.7 3.5 0.00 0.00 0.00 47 1009.0
20260508142704 88 106 1.7 3.5 0.00 0.00 0.00 46 1009.0
20260508142505 88 109 1.7 3.5 0.00 0.00 0.00 47 1009.1
20260508142204 88 112 1.7 3.5 0.00 0.00 0.00 46 1009.1
20260508142104 88 94 1.7 3.5 0.00 0.00 0.00 46 1009.1
20260508142007 88 74 1.7 3.5 0.00 0.00 0.00 46 1009.1
20260508141904 88 108 1.7 3.5 0.00 0.00 0.00 46 1009.1
20260508141804 88 117 1.7 3.5 0.00 0.00 0.00 46 1009.1
20260508141605 88 117 1.7 3.5 0.00 0.00 0.00 46 1009.1
20260508141505 88 117 1.7 3.5 0.00 0.00 0.00 46 1009.0
20260508141404 88 82 1.7 3.5 0.00 0.00 0.00 46 1009.0
20260508141203 88 59 1.7 4.3 0.00 0.00 0.00 46 1009.0
20260508141104 88 129 1.7 4.3 0.00 0.00 0.00 46 1009.1
20260508141007 88 102 1.7 4.3 0.00 0.00 0.00 46 1009.1
20260508140603 88 96 2.6 4.3 0.00 0.00 0.00 46 1009.0
20260508140506 88 113 2.6 4.3 0.00 0.00 0.00 46 1009.0
20260508140404 88 100 1.7 4.3 0.00 0.00 0.00 46 1009.0
20260508140303 88 93 2.6 4.3 0.00 0.00 0.00 46 1009.0
20260508140203 88 104 2.6 4.3 0.00 0.00 0.00 46 1009.0
20260508140104 88 107 1.7 3.5 0.00 0.00 0.00 46 1009.0
20260508140008 88 76 1.7 3.5 0.00 0.00 0.00 46 1009.0
20260508135903 88 67 1.7 3.5 0.00 0.00 0.00 46 1009.0
20260508135802 88 92 0.9 3.5 0.00 0.00 0.00 46 1009.0
20260508135702 88 70 1.7 3.5 0.00 0.00 0.00 45 1009.0
20260508135602 88 138 1.7 3.5 0.00 0.00 0.00 45 1008.9
20260508135404 88 113 1.7 3.5 0.00 0.00 0.00 45 1008.9
20260508135305 88 92 1.7 3.5 0.00 0.00 0.00 45 1008.9
20260508135203 88 88 1.7 3.5 0.00 0.00 0.00 45 1008.9
20260508134803 89 124 1.7 5.2 0.00 0.00 0.00 45 1008.9
20260508134702 89 125 2.6 5.2 0.00 0.00 0.00 46 1008.8
20260508134603 89 133 1.7 5.2 0.00 0.00 0.00 45 1008.8
20260508134504 89 113 1.7 5.2 0.00 0.00 0.00 45 1008.8
20260508134301 89 111 1.7 5.2 0.00 0.00 0.00 45 1008.8
20260508134202 89 140 2.6 5.2 0.00 0.00 0.00 45 1008.8
20260508134102 89 101 1.7 5.2 0.00 0.00 0.00 45 1008.8
20260508134006 89 119 1.7 5.2 0.00 0.00 0.00 45 1008.8
20260508133902 89 103 1.7 4.3 0.00 0.00 0.00 45 1008.8
20260508133802 89 135 1.7 3.5 0.00 0.00 0.00 45 1008.8
20260508133703 89 109 1.7 3.5 0.00 0.00 0.00 45 1008.8
20260508133602 89 99 1.7 3.5 0.00 0.00 0.00 45 1008.8
20260508133504 89 204 1.7 3.5 0.00 0.00 0.00 45 1008.8
20260508133402 89 118 1.7 3.5 0.00 0.00 0.00 45 1008.7
20260508133303 89 127 0.9 5.2 0.00 0.00 0.00 45 1008.7
20260508133203 89 113 0.9 5.2 0.00 0.00 0.00 45 1008.8
20260508133102 89 114 0.9 5.2 0.00 0.00 0.00 45 1008.8
20260508133005 89 150 1.7 5.2 0.00 0.00 0.00 45 1008.7
20260508132902 89 109 1.7 5.2 0.00 0.00 0.00 45 1008.7
20260508132803 89 94 1.7 5.2 0.00 0.00 0.00 45 1008.6
20260508132702 89 86 1.7 5.2 0.00 0.00 0.00 45 1008.7
20260508132504 89 130 2.6 5.2 0.00 0.00 0.00 44 1008.7
20260508132402 89 92 1.7 5.2 0.00 0.00 0.00 45 1008.6
20260508132306 89 134 2.6 4.3 0.00 0.00 0.00 44 1008.7
20260508132202 89 131 2.6 4.3 0.00 0.00 0.00 44 1008.7
20260508132102 89 82 2.6 5.2 0.00 0.00 0.00 44 1008.6
20260508132007 89 102 2.6 4.3 0.00 0.00 0.00 44 1008.7
20260508131902 89 94 1.7 3.5 0.00 0.00 0.00 44 1008.7
20260508131803 89 39 1.7 5.2 0.00 0.00 0.00 44 1008.6
20260508131702 89 76 1.7 5.2 0.00 0.00 0.00 44 1008.6
20260508131602 89 62 1.7 5.2 0.00 0.00 0.00 44 1008.7
20260508131505 89 88 0.9 5.2 0.00 0.00 0.00 44 1008.6
20260508131402 89 126 1.7 5.2 0.00 0.00 0.00 44 1008.6
20260508131309 89 98 1.7 5.2 0.00 0.00 0.00 44 1008.6
20260508131203 89 126 1.7 5.2 0.00 0.00 0.00 44 1008.6
20260508131102 90 107 2.6 5.2 0.00 0.00 0.00 44 1008.6
20260508131006 90 91 1.7 5.2 0.00 0.00 0.00 44 1008.7
20260508130903 90 96 1.7 5.2 0.00 0.00 0.00 44 1008.6
20260508130802 90 101 2.6 5.2 0.00 0.00 0.00 44 1008.6
20260508130702 90 152 1.7 5.2 0.00 0.00 0.00 44 1008.7
20260508130604 90 82 1.7 5.2 0.00 0.00 0.00 44 1008.7
20260508130505 90 315 1.7 5.2 0.00 0.00 0.00 44 1008.6
20260508130204 90 103 1.7 5.2 0.00 0.00 0.00 44 1008.6
20260508130007 90 71 1.7 4.3 0.00 0.00 0.00 44 1008.7
20260508125902 90 71 0.9 4.3 0.00 0.00 0.00 44 1008.7
20260508125802 90 111 1.7 4.3 0.00 0.00 0.00 44 1008.6
20260508125704 90 76 1.7 4.3 0.00 0.00 0.00 44 1008.8
20260508125603 90 78 1.7 4.3 0.00 0.00 0.00 44 1008.8
20260508125506 90 103 2.6 4.3 0.00 0.00 0.00 44 1008.7
20260508125404 90 65 2.6 4.3 0.00 0.00 0.00 44 1008.7
20260508125306 90 84 2.6 4.3 0.00 0.00 0.00 44 1008.6
20260508125204 90 103 2.6 4.3 0.00 0.00 0.00 43 1008.7
20260508125104 90 76 2.6 5.2 0.00 0.00 0.00 43 1008.7
20260508125008 90 94 2.6 4.3 0.00 0.00 0.00 43 1008.7
20260508124805 90 95 2.6 4.3 0.00 0.00 0.00 43 1008.6
20260508124704 90 108 1.7 4.3 0.00 0.00 0.00 44 1008.6
20260508124505 90 355 1.7 6.1 0.00 0.00 0.00 44 1008.6
20260508124404 90 78 1.7 6.1 0.00 0.00 0.00 44 1008.6
20260508124304 90 69 1.7 6.1 0.00 0.00 0.00 44 1008.6
20260508124204 90 21 1.7 6.1 0.00 0.00 0.00 44 1008.6
20260508124104 90 78 0.9 6.1 0.00 0.00 0.00 43 1008.5
20260508124008 90 90 1.7 6.1 0.00 0.00 0.00 43 1008.6
20260508123904 90 36 3.5 6.1 0.00 0.00 0.00 43 1008.6
20260508123804 90 103 3.5 5.2 0.00 0.00 0.00 44 1008.6
20260508123705 90 78 2.6 5.2 0.00 0.00 0.00 44 1008.5
20260508123603 90 113 2.6 5.2 0.00 0.00 0.00 43 1008.5
20260508123506 90 124 2.6 5.2 0.00 0.00 0.00 44 1008.5
20260508123403 90 127 2.6 5.2 0.00 0.00 0.00 44 1008.5
20260508123205 90 104 1.7 5.2 0.00 0.00 0.00 44 1008.5
20260508123006 90 78 2.6 7.0 0.00 0.00 0.00 44 1008.5
20260508122905 90 72 1.7 7.0 0.00 0.00 0.00 43 1008.5
20260508122805 90 64 1.7 7.0 0.00 0.00 0.00 43 1008.5
20260508122602 90 96 3.5 7.0 0.00 0.00 0.00 43 1008.4
20260508122506 91 76 3.5 7.0 0.00 0.00 0.00 43 1008.4
20260508122404 91 103 3.5 7.0 0.00 0.00 0.00 43 1008.5
20260508122307 91 88 3.5 7.0 0.00 0.00 0.00 43 1008.5
20260508122204 91 88 3.5 7.0 0.00 0.00 0.00 43 1008.5
20260508122104 91 60 3.5 7.0 0.00 0.00 0.00 43 1008.5
20260508122007 91 92 3.5 6.1 0.00 0.00 0.00 43 1008.5
20260508121903 91 86 2.6 6.1 0.00 0.00 0.00 43 1008.5
20260508121702 91 97 2.6 6.1 0.00 0.00 0.00 43 1008.5
20260508121603 91 146 2.6 6.1 0.00 0.00 0.00 43 1008.4
20260508121506 91 119 3.5 6.1 0.00 0.00 0.00 43 1008.4
20260508121403 91 96 2.6 6.1 0.00 0.00 0.00 42 1008.5
20260508121304 91 100 2.6 6.1 0.00 0.00 0.00 43 1008.4
20260508121204 91 76 2.6 6.1 0.00 0.00 0.00 43 1008.4
20260508121104 91 81 2.6 6.1 0.00 0.00 0.00 43 1008.5
20260508121006 91 74 2.6 5.2 0.00 0.00 0.00 43 1008.4
20260508120903 91 64 2.6 5.2 0.00 0.00 0.00 42 1008.4
20260508120803 91 74 2.6 5.2 0.00 0.00 0.00 42 1008.4
20260508120603 91 122 2.6 7.0 0.00 0.00 0.00 42 1008.4
20260508120506 91 68 1.7 7.0 0.00 0.00 0.00 42 1008.3
20260508120405 91 73 1.7 7.0 0.00 0.00 0.00 42 1008.4
20260508120303 91 100 1.7 7.0 0.00 0.00 0.00 42 1008.4
20260508120203 91 88 1.7 7.0 0.00 0.00 0.00 42 1008.3
20260508120106 91 124 1.7 7.0 0.00 0.00 0.00 42 1008.3
20260508120007 91 71 3.5 7.0 0.00 0.00 0.00 42 1008.3
20260508115904 91 67 3.5 7.0 0.00 0.00 0.00 41 1008.3
20260508115803 91 55 3.5 7.0 0.00 0.00 0.00 42 1008.3
20260508115703 91 74 3.5 7.0 0.00 0.00 0.00 42 1008.4
20260508115404 91 96 3.5 7.0 0.00 0.00 0.00 42 1008.3
20260508115306 91 105 2.6 7.0 0.00 0.00 0.00 42 1008.4
20260508115202 91 117 3.5 7.0 0.00 0.00 0.00 42 1008.3
20260508115102 91 87 4.3 7.0 0.00 0.00 0.00 42 1008.3
20260508114902 91 76 4.3 7.0 0.00 0.00 0.00 42 1008.3
20260508114803 91 39 3.5 7.0 0.00 0.00 0.00 42 1008.3
20260508114702 91 107 2.6 7.0 0.00 0.00 0.00 42 1008.3
20260508114603 91 23 3.5 7.0 0.00 0.00 0.00 42 1008.3
20260508114504 91 56 3.5 7.0 0.00 0.00 0.00 41 1008.3
20260508114403 91 107 4.3 7.0 0.00 0.00 0.00 41 1008.3
20260508114302 91 109 4.3 7.0 0.00 0.00 0.00 42 1008.3
20260508114103 91 94 2.6 4.3 0.00 0.00 0.00 42 1008.3
20260508114005 91 90 2.6 5.2 0.00 0.00 0.00 42 1008.3
20260508113902 91 72 2.6 5.2 0.00 0.00 0.00 42 1008.3
20260508113703 91 102 1.7 5.2 0.00 0.00 0.00 41 1008.3
20260508113602 91 40 1.7 5.2 0.00 0.00 0.00 41 1008.3
20260508113404 91 63 2.6 7.0 0.00 0.00 0.00 41 1008.3
20260508113304 91 69 2.6 7.0 0.00 0.00 0.00 41 1008.2
20260508113202 91 78 2.6 7.0 0.00 0.00 0.00 41 1008.3
20260508113101 91 101 2.6 7.0 0.00 0.00 0.00 41 1008.2
20260508113006 91 107 2.6 7.0 0.00 0.00 0.00 41 1008.3
20260508112903 91 73 3.5 7.0 0.00 0.00 0.00 41 1008.3
20260508112803 91 51 3.5 7.0 0.00 0.00 0.00 41 1008.2
20260508112702 91 65 2.6 5.2 0.00 0.00 0.00 41 1008.3
20260508112504 91 78 2.6 5.2 0.00 0.00 0.00 41 1008.3
20260508112403 91 90 3.5 5.2 0.00 0.00 0.00 41 1008.3
20260508112306 91 100 3.5 7.0 0.00 0.00 0.00 41 1008.3
20260508112202 91 69 1.7 7.0 0.00 0.00 0.00 42 1008.3
20260508111902 91 114 5.2 7.8 0.00 0.00 0.00 41 1008.3
20260508111804 91 128 4.3 7.8 0.00 0.00 0.00 41 1008.3
20260508111702 91 136 4.3 7.8 0.00 0.00 0.00 41 1008.3
20260508111602 91 57 4.3 7.8 0.00 0.00 0.00 41 1008.3
20260508111504 91 75 3.5 7.8 0.00 0.00 0.00 41 1008.4
20260508111402 91 62 3.5 7.8 0.00 0.00 0.00 41 1008.4
20260508111202 91 58 4.3 7.8 0.00 0.00 0.00 41 1008.3
20260508111102 91 61 3.5 7.0 0.00 0.00 0.00 41 1008.4
20260508111005 91 54 2.6 7.0 0.00 0.00 0.00 41 1008.4
20260508110902 91 47 1.7 7.0 0.00 0.00 0.00 41 1008.3
20260508110804 91 115 1.7 7.0 0.00 0.00 0.00 41 1008.4
20260508110702 91 98 1.7 7.0 0.00 0.00 0.00 41 1008.3
20260508110602 91 77 1.7 7.0 0.00 0.00 0.00 41 1008.4
20260508110504 91 37 1.7 7.0 0.00 0.00 0.00 41 1008.5
20260508110403 91 101 2.6 7.0 0.00 0.00 0.00 41 1008.5
20260508110302 91 91 2.6 7.0 0.00 0.00 0.00 41 1008.5
20260508110201 91 75 1.7 7.0 0.00 0.00 0.00 41 1008.5
20260508110007 91 110 3.5 6.1 0.00 0.00 0.00 41 1008.5
20260508105903 91 96 3.5 7.0 0.00 0.00 0.00 41 1008.6
20260508105803 91 131 3.5 7.0 0.00 0.00 0.00 42 1008.6
20260508105702 91 98 3.5 7.0 0.00 0.00 0.00 42 1008.5
20260508105601 91 106 3.5 7.0 0.00 0.00 0.00 42 1008.6
20260508105504 91 84 2.6 7.0 0.00 0.00 0.00 41 1008.5
20260508105403 91 69 2.6 7.8 0.00 0.00 0.00 41 1008.6
20260508105305 91 87 3.5 7.8 0.00 0.00 0.00 41 1008.6
20260508105202 91 63 4.3 7.8 0.00 0.00 0.00 41 1008.6
20260508105103 91 129 4.3 7.8 0.00 0.00 0.00 40 1008.6
20260508105005 91 109 3.5 7.8 0.00 0.00 0.00 41 1008.6
20260508104902 91 60 3.5 7.8 0.00 0.00 0.00 41 1008.6
20260508104803 91 126 4.3 7.8 0.00 0.00 0.00 41 1008.7
20260508104703 91 69 4.3 7.8 0.00 0.00 0.00 41 1008.6
20260508104604 91 119 5.2 7.8 0.00 0.00 0.00 41 1008.6
20260508104504 91 111 5.2 7.8 0.00 0.00 0.00 41 1008.7
20260508104403 91 131 4.3 7.8 0.00 0.00 0.00 41 1008.6
20260508104303 91 126 3.5 7.0 0.00 0.00 0.00 41 1008.8
20260508104202 91 110 1.7 5.2 0.00 0.00 0.00 41 1008.7
20260508103903 91 103 3.5 5.2 0.00 0.00 0.00 40 1008.8
20260508103802 91 108 1.7 5.2 0.00 0.00 0.00 40 1008.8
20260508103603 91 157 1.7 7.8 0.00 0.00 0.00 40 1008.8
20260508103506 92 169 0.9 8.7 0.00 0.00 0.00 41 1008.8
20260508103404 92 196 0.9 8.7 0.00 0.00 0.00 41 1008.8
20260508103203 92 186 1.7 8.7 0.00 0.00 0.00 41 1008.8
20260508103103 92 198 2.6 8.7 0.00 0.00 0.00 40 1008.8
20260508103006 92 197 2.6 8.7 0.00 0.00 0.00 40 1008.8
20260508102903 92 167 3.5 8.7 0.00 0.00 0.00 41 1008.8
20260508102803 92 204 6.1 8.7 0.00 0.00 0.00 41 1008.8
20260508102702 92 178 5.2 8.7 0.00 0.00 0.00 41 1008.6
20260508102602 92 245 3.5 7.8 0.00 0.00 0.00 41 1008.7
20260508102504 92 35 3.5 7.8 0.00 0.00 0.00 41 1008.7
20260508102306 91 301 2.6 7.8 0.00 0.00 0.00 41 1008.8
20260508102202 91 311 0.9 4.3 0.00 0.00 0.00 41 1008.9
20260508102104 91 5 0.9 4.3 0.00 0.00 0.00 40 1008.9
20260508102008 91 69 0.9 6.1 0.00 0.00 0.00 40 1008.9
20260508101902 91 79 1.7 6.1 0.00 0.00 0.00 40 1009.0
20260508101802 91 58 2.6 6.1 0.00 0.00 0.00 40 1008.9
20260508101703 91 51 2.6 6.1 0.00 0.00 0.00 41 1009.0
20260508101602 91 104 1.7 8.7 0.00 0.00 0.00 41 1009.0
20260508101504 91 95 1.7 9.6 0.00 0.00 0.00 41 1009.0
20260508101402 91 86 2.6 9.6 0.00 0.00 0.00 40 1009.0
20260508101303 91 98 3.5 9.6 0.00 0.00 0.00 40 1009.0
20260508101202 91 97 3.5 9.6 0.00 0.00 0.00 40 1009.0
20260508101104 91 69 2.6 9.6 0.00 0.00 0.00 41 1009.0
20260508101006 91 160 3.5 9.6 0.00 0.00 0.00 41 1009.0
20260508100903 92 82 5.2 9.6 0.00 0.00 0.00 40 1009.0
20260508100703 92 107 2.6 8.7 0.00 0.00 0.00 40 1009.0
20260508100602 92 117 3.5 7.0 0.00 0.00 0.00 40 1008.9
20260508100505 92 109 4.3 7.0 0.00 0.00 0.00 40 1009.0
20260508100402 92 70 4.3 7.0 0.00 0.00 0.00 40 1009.0
20260508100302 92 139 2.6 7.0 0.00 0.00 0.00 40 1009.0
20260508100205 92 98 2.6 7.8 0.00 0.00 0.00 40 1009.0
20260508100107 92 57 3.5 7.8 0.00 0.00 0.00 40 1009.0
20260508100008 92 186 3.5 7.8 0.00 0.00 0.00 40 1009.0
20260508095902 92 80 2.6 7.8 0.00 0.00 0.00 40 1009.0
20260508095803 92 146 2.6 7.8 0.00 0.00 0.00 41 1008.9
20260508095702 92 71 2.6 7.8 0.00 0.00 0.00 41 1009.1
20260508095603 92 112 3.5 7.8 0.00 0.00 0.00 40 1009.0
20260508095402 92 78 5.2 7.8 0.00 0.00 0.00 40 1009.0
20260508095306 92 142 3.5 7.8 0.00 0.00 0.00 40 1009.0
20260508095203 92 101 4.3 7.8 0.00 0.00 0.00 40 1009.0
20260508095102 92 69 5.2 7.8 0.00 0.00 0.00 40 1009.0
20260508094904 92 64 3.5 7.8 0.00 0.00 0.00 40 1009.1
20260508094804 92 129 3.5 7.8 0.00 0.00 0.00 41 1009.1
20260508094703 91 109 3.5 7.8 0.00 0.00 0.00 41 1009.2
20260508094505 91 151 2.6 7.8 0.00 0.00 0.00 40 1009.2
20260508094402 91 173 3.5 7.8 0.00 0.00 0.00 40 1009.2
20260508094302 91 137 4.3 7.8 0.00 0.00 0.00 40 1009.2
20260508094007 91 101 1.7 5.2 0.00 0.00 0.00 40 1009.2
20260508093903 91 60 0.9 6.1 0.00 0.00 0.00 40 1009.3
20260508093703 91 267 1.7 7.8 0.00 0.00 0.00 41 1009.4
20260508093603 91 261 2.6 7.8 0.00 0.00 0.00 41 1009.4
20260508093504 91 205 3.5 7.8 0.00 0.00 0.00 40 1009.4
20260508093403 91 178 3.5 7.8 0.00 0.00 0.00 40 1009.5
20260508093304 91 190 3.5 8.7 0.00 0.00 0.00 40 1009.5
20260508093202 91 204 5.2 8.7 0.00 0.00 0.00 40 1009.5
20260508092903 91 138 3.5 8.7 0.00 0.00 0.00 41 1009.4
20260508092802 91 149 2.6 8.7 0.00 0.00 0.00 41 1009.5
20260508092603 91 143 4.3 8.7 0.00 0.00 0.00 41 1009.5
20260508092505 91 84 4.3 8.7 0.00 0.00 0.00 40 1009.5
20260508092402 91 113 3.5 7.0 0.00 0.00 0.00 41 1009.5
20260508092312 91 132 3.5 7.0 0.00 0.00 0.00 40 1009.5
20260508092203 91 106 2.6 7.0 0.00 0.00 0.00 41 1009.6
20260508092003 91 42 1.7 7.0 0.00 0.00 0.00 41 1009.5
20260508091902 91 55 2.6 7.0 0.00 0.00 0.00 41 1009.6
20260508091802 91 82 3.5 7.0 0.00 0.00 0.00 40 1009.5
20260508091603 91 125 4.3 7.8 0.00 0.00 0.00 40 1009.6
20260508091504 91 153 4.3 7.8 0.00 0.00 0.00 40 1009.6
20260508091403 91 169 2.6 7.8 0.00 0.00 0.00 40 1009.7
20260508091302 91 122 0.9 7.8 0.00 0.00 0.00 40 1009.6
20260508091202 91 138 2.6 7.8 0.00 0.00 0.00 40 1009.6
20260508091103 91 82 3.5 7.8 0.00 0.00 0.00 40 1009.6
20260508091006 91 133 4.3 7.8 0.00 0.00 0.00 40 1009.6
20260508090705 91 172 4.3 7.0 0.00 0.00 0.00 41 1009.6
20260508090604 91 159 3.5 7.0 0.00 0.00 0.00 41 1009.7
20260508090506 91 135 2.6 6.1 0.00 0.00 0.00 40 1009.7
20260508090405 91 79 3.5 6.1 0.00 0.00 0.00 40 1009.7
20260508090303 91 104 2.6 6.1 0.00 0.00 0.00 40 1009.6
20260508090205 91 123 1.7 6.1 0.00 0.00 0.00 40 1009.6
20260508090104 91 124 0.9 7.0 0.00 0.00 0.00 41 1009.7
20260508090006 91 165 0.9 7.0 0.00 0.00 0.00 41 1009.7
20260508085803 91 250 1.7 7.0 0.00 0.00 0.00 42 1009.7
20260508085603 91 223 2.6 7.0 0.00 0.00 0.00 42 1009.8
20260508085504 91 234 3.5 7.0 0.00 0.00 0.00 40 1009.8
20260508085404 91 184 5.2 7.0 0.00 0.00 0.00 41 1009.8
20260508085306 91 169 5.2 7.8 0.00 0.00 0.00 41 1009.8
20260508085202 91 189 4.3 7.8 0.00 0.00 0.00 41 1009.8
20260508085102 90 174 3.5 10.4 0.00 0.00 0.00 41 1009.8
20260508085006 90 167 2.6 10.4 0.00 0.00 0.00 41 1009.8
20260508084802 90 132 2.6 10.4 0.00 0.00 0.00 41 1009.8
20260508084704 90 144 1.7 10.4 0.00 0.00 0.00 41 1009.9
20260508084603 90 184 3.5 10.4 0.00 0.00 0.00 41 1009.9
20260508084505 90 176 6.1 10.4 0.00 0.00 0.00 41 1009.9
20260508084402 90 169 7.0 10.4 0.00 0.00 0.00 41 1010.1
20260508084304 90 138 7.8 10.4 0.00 0.00 0.00 41 1009.8
20260508084105 90 103 7.0 10.4 0.00 0.00 0.00 41 1009.8
20260508084005 91 107 6.1 10.4 0.00 0.00 0.00 41 1009.9
20260508083903 91 96 6.1 10.4 0.00 0.00 0.00 41 1009.9
20260508083804 91 178 5.2 10.4 0.00 0.00 0.00 41 1009.9
20260508083704 91 115 3.5 7.8 0.00 0.00 0.00 41 1009.9
20260508083505 90 188 2.6 6.1 0.00 0.00 0.00 41 1009.9
20260508083403 90 176 1.7 8.7 0.00 0.00 0.00 42 1009.9
20260508083303 90 169 2.6 8.7 0.00 0.00 0.00 41 1009.9
20260508083204 90 98 3.5 8.7 0.00 0.00 0.00 40 1009.9
20260508083102 90 108 3.5 8.7 0.00 0.00 0.00 41 1010.0
20260508083006 90 98 3.5 8.7 0.00 0.00 0.00 41 1010.0
20260508082904 90 66 3.5 8.7 0.00 0.00 0.00 42 1010.0
20260508082704 90 103 4.3 9.6 0.00 0.00 0.00 41 1010.0
20260508082602 90 104 2.6 9.6 0.00 0.00 0.00 42 1010.0
20260508082506 90 181 3.5 9.6 0.00 0.00 0.00 42 1010.1
20260508082403 90 180 5.2 9.6 0.00 0.00 0.00 42 1010.0
20260508082305 90 125 5.2 9.6 0.00 0.00 0.00 42 1010.0
20260508082203 90 117 6.1 9.6 0.00 0.00 0.00 42 1010.0
20260508082102 90 82 6.1 9.6 0.00 0.00 0.00 41 1010.0
20260508081904 90 84 7.8 9.6 0.00 0.00 0.00 41 1010.0
20260508081805 90 132 6.1 9.6 0.00 0.00 0.00 42 1010.1
20260508081704 89 126 3.5 9.6 0.00 0.00 0.00 43 1010.0
20260508081505 89 95 2.6 10.4 0.00 0.00 0.00 42 1010.1
20260508081400 89 123 3.5 10.4 0.00 0.00 0.00 42 1010.0
20260508081303 89 288 3.5 10.4 0.00 0.00 0.00 43 1010.1
20260508081200 89 194 4.3 10.4 0.00 0.00 0.00 43 1010.1
20260508081103 89 229 5.2 10.4 0.00 0.00 0.00 43 1010.1
20260508081006 89 191 6.1 10.4 0.00 0.00 0.00 43 1010.1
20260508080903 89 188 6.1 12.2 0.00 0.00 0.00 43 1010.1
20260508080703 89 140 5.2 12.2 0.00 0.00 0.00 42 1010.1
20260508080508 89 167 4.3 12.2 0.00 0.00 0.00 43 1010.1
20260508080404 89 167 5.2 12.2 0.00 0.00 0.00 43 1010.2
20260508080303 89 186 6.1 12.2 0.00 0.00 0.00 42 1010.2
20260508075903 89 168 4.3 9.6 0.00 0.00 0.00 42 1010.2
20260508075803 89 128 3.5 13.0 0.00 0.00 0.00 42 1010.2
20260508075702 89 172 4.3 13.0 0.00 0.00 0.00 42 1010.2
20260508075603 89 148 5.2 13.0 0.00 0.00 0.00 42 1010.3
20260508075504 89 185 5.2 13.0 0.00 0.00 0.00 42 1010.3
20260508075403 89 172 5.2 13.0 0.00 0.00 0.00 42 1010.3
20260508075308 89 147 5.2 13.0 0.00 0.00 0.00 42 1010.3
20260508075203 89 142 7.0 13.0 0.00 0.00 0.00 42 1010.3
20260508075103 89 134 8.7 13.0 0.00 0.00 0.00 43 1010.1
20260508075006 89 136 7.8 13.0 0.00 0.00 0.00 42 1010.2
20260508074903 89 109 5.2 10.4 0.00 0.00 0.00 42 1010.2
20260508074800 89 78 3.5 10.4 0.00 0.00 0.00 42 1010.2
20260508074703 89 126 3.5 10.4 0.00 0.00 0.00 41 1010.3
20260508074604 89 53 4.3 10.4 0.00 0.00 0.00 41 1010.3
20260508074505 89 104 6.1 10.4 0.00 0.00 0.00 41 1010.3
20260508074402 89 106 6.1 10.4 0.00 0.00 0.00 42 1010.4
20260508074302 89 203 5.2 8.7 0.00 0.00 0.00 42 1010.4
20260508074204 89 171 5.2 8.7 0.00 0.00 0.00 42 1010.4
20260508074102 89 147 6.1 10.4 0.00 0.00 0.00 43 1010.4
20260508074005 89 181 5.2 10.4 0.00 0.00 0.00 42 1010.3
20260508073802 89 135 5.2 10.4 0.00 0.00 0.00 42 1010.3
20260508073703 89 175 4.3 10.4 0.00 0.00 0.00 42 1010.4
20260508073602 89 94 3.5 13.0 0.00 0.00 0.00 42 1010.4
20260508073404 89 155 7.0 13.0 0.00 0.00 0.00 42 1010.4
20260508073302 89 169 7.0 13.0 0.00 0.00 0.00 41 1010.4
20260508073202 89 153 7.0 13.0 0.00 0.00 0.00 42 1010.4
20260508073102 89 88 6.1 13.0 0.00 0.00 0.00 42 1010.4
20260508073007 89 141 6.1 13.0 0.00 0.00 0.00 42 1010.4
20260508072802 89 173 5.2 13.0 0.00 0.00 0.00 42 1010.4
20260508072604 89 157 2.6 9.6 0.00 0.00 0.00 42 1010.3
20260508072508 89 109 4.3 9.6 0.00 0.00 0.00 41 1010.4
20260508072403 89 147 6.1 9.6 0.00 0.00 0.00 42 1010.5
20260508072307 89 138 5.2 10.4 0.00 0.00 0.00 43 1010.3
20260508072204 89 178 3.5 9.6 0.00 0.00 0.00 43 1010.4
20260508072103 89 123 5.2 9.6 0.00 0.00 0.00 42 1010.4
20260508072007 89 197 5.2 9.6 0.00 0.00 0.00 42 1010.5
20260508071902 89 138 4.3 9.6 0.00 0.00 0.00 43 1010.4
20260508071803 89 111 5.2 8.7 0.00 0.00 0.00 42 1010.4
20260508071705 89 136 5.2 8.7 0.00 0.00 0.00 42 1010.5
20260508071604 89 134 2.6 7.8 0.00 0.00 0.00 43 1010.5
20260508071507 89 127 3.5 7.8 0.00 0.00 0.00 43 1010.5
20260508071404 89 155 3.5 7.8 0.00 0.00 0.00 43 1010.5
20260508071304 88 133 1.7 8.7 0.00 0.00 0.00 43 1010.6
20260508071202 88 159 3.5 8.7 0.00 0.00 0.00 43 1010.6
20260508070902 88 159 2.6 8.7 0.00 0.00 0.00 43 1010.6
20260508070801 88 155 4.3 8.7 0.00 0.00 0.00 43 1010.6
20260508070703 88 96 5.2 8.7 0.00 0.00 0.00 43 1010.6
20260508070604 88 103 4.3 8.7 0.00 0.00 0.00 42 1010.6
20260508070505 88 118 5.2 8.7 0.00 0.00 0.00 43 1010.6
20260508070304 88 137 4.3 10.4 0.00 0.00 0.00 44 1010.6
20260508070204 88 173 4.3 10.4 0.00 0.00 0.00 44 1010.7
20260508070009 88 153 3.5 10.4 0.00 0.00 0.00 45 1010.6
20260508065905 88 171 4.3 10.4 0.00 0.00 0.00 45 1010.7
20260508065802 88 160 5.2 10.4 0.00 0.00 0.00 44 1010.7
20260508065705 88 173 6.1 12.2 0.00 0.00 0.00 43 1010.7
20260508065603 88 169 7.0 12.2 0.00 0.00 0.00 44 1010.7
20260508065503 88 161 7.0 12.2 0.00 0.00 0.00 44 1010.8
20260508065402 88 176 7.0 12.2 0.00 0.00 0.00 44 1010.7
20260508065306 88 138 7.8 12.2 0.00 0.00 0.00 44 1010.8
20260508065204 88 173 7.8 12.2 0.00 0.00 0.00 43 1010.7
20260508065102 88 166 7.8 12.2 0.00 0.00 0.00 43 1010.8
20260508065004 88 165 7.8 12.2 0.00 0.00 0.00 43 1010.9
20260508064803 88 161 6.1 9.6 0.00 0.00 0.00 43 1010.9
20260508064704 88 130 6.1 9.6 0.00 0.00 0.00 43 1010.9
20260508064602 88 139 6.1 9.6 0.00 0.00 0.00 43 1010.8
20260508064506 88 217 7.0 8.7 0.00 0.00 0.00 43 1010.9
20260508064403 88 159 5.2 8.7 0.00 0.00 0.00 43 1010.9
20260508064304 88 150 4.3 8.7 0.00 0.00 0.00 44 1010.9
20260508064204 88 159 3.5 8.7 0.00 0.00 0.00 44 1010.9
20260508064106 88 175 2.6 8.7 0.00 0.00 0.00 43 1010.9
20260508064007 88 163 2.6 8.7 0.00 0.00 0.00 43 1010.9
20260508063902 87 134 4.3 8.7 0.00 0.00 0.00 43 1011.0
20260508063800 87 165 5.2 8.7 0.00 0.00 0.00 44 1010.9
20260508063702 87 177 4.3 8.7 0.00 0.00 0.00 44 1011.0
20260508063602 87 181 2.6 8.7 0.00 0.00 0.00 44 1010.8
20260508063506 87 259 3.5 7.8 0.00 0.00 0.00 44 1010.9
20260508063403 87 157 5.2 7.8 0.00 0.00 0.00 43 1010.9
20260508063304 87 178 4.3 7.0 0.00 0.00 0.00 43 1010.9
20260508063203 87 166 2.6 7.8 0.00 0.00 0.00 42 1010.9
20260508063007 87 114 3.5 8.7 0.00 0.00 0.00 43 1011.0
20260508062904 87 122 3.5 8.7 0.00 0.00 0.00 44 1010.9
20260508062802 87 185 4.3 8.7 0.00 0.00 0.00 43 1011.0
20260508062704 87 146 5.2 8.7 0.00 0.00 0.00 44 1011.0
20260508062602 87 161 4.3 8.7 0.00 0.00 0.00 44 1011.0
20260508062504 87 167 4.3 8.7 0.00 0.00 0.00 44 1011.0
20260508062403 87 186 5.2 8.7 0.00 0.00 0.00 44 1011.0
20260508062306 87 180 5.2 8.7 0.00 0.00 0.00 44 1011.0
20260508062104 87 208 3.5 7.8 0.00 0.00 0.00 43 1011.0
20260508062005 87 170 4.3 7.8 0.00 0.00 0.00 43 1011.1
20260508061904 87 178 4.3 7.8 0.00 0.00 0.00 43 1011.1
20260508061804 87 167 3.5 7.0 0.00 0.00 0.00 44 1011.1
20260508061704 87 192 2.6 7.0 0.00 0.00 0.00 45 1011.0
20260508061504 87 141 2.6 7.0 0.00 0.00 0.00 44 1011.0
20260508061305 86 177 1.7 7.8 0.00 0.00 0.00 44 1011.0
20260508061203 86 131 2.6 7.8 0.00 0.00 0.00 44 1011.1
20260508061008 86 140 3.5 7.8 0.00 0.00 0.00 44 1011.0
20260508060904 86 179 2.6 7.8 0.00 0.00 0.00 45 1011.1
20260508060804 86 190 2.6 8.7 0.00 0.00 0.00 44 1011.1
20260508060704 86 151 3.5 8.7 0.00 0.00 0.00 44 1011.1
20260508060605 86 163 4.3 8.7 0.00 0.00 0.00 45 1011.1
20260508060505 86 174 5.2 8.7 0.00 0.00 0.00 44 1011.1
20260508060404 86 169 5.2 8.7 0.00 0.00 0.00 44 1011.0
20260508060303 86 205 4.3 8.7 0.00 0.00 0.00 45 1011.1
20260508060202 86 148 5.2 8.7 0.00 0.00 0.00 45 1011.2
20260508060004 86 149 5.2 8.7 0.00 0.00 0.00 45 1011.1
20260508055903 86 175 3.5 7.8 0.00 0.00 0.00 45 1011.1
20260508055802 86 178 2.6 7.8 0.00 0.00 0.00 46 1011.1
20260508055701 86 134 4.3 7.8 0.00 0.00 0.00 45 1011.1
20260508055603 86 129 5.2 7.8 0.00 0.00 0.00 46 1011.1
20260508055505 86 181 6.1 7.8 0.00 0.00 0.00 45 1011.1
20260508055402 86 177 7.0 9.6 0.00 0.00 0.00 46 1011.1
20260508055305 86 165 6.1 7.8 0.00 0.00 0.00 46 1011.2
20260508055102 86 165 5.2 7.0 0.00 0.00 0.00 46 1011.1
20260508055005 85 177 3.5 7.8 0.00 0.00 0.00 46 1011.1
20260508054901 85 170 1.7 7.0 0.00 0.00 0.00 46 1011.1
20260508054801 85 138 2.6 7.0 0.00 0.00 0.00 46 1011.1
20260508054701 85 162 2.6 7.0 0.00 0.00 0.00 46 1011.1
20260508054604 85 105 3.5 7.0 0.00 0.00 0.00 46 1011.1
20260508054505 85 172 2.6 7.0 0.00 0.00 0.00 46 1011.1
20260508054302 85 166 3.5 7.8 0.00 0.00 0.00 46 1011.1
20260508054201 85 153 1.7 6.1 0.00 0.00 0.00 47 1011.1
20260508054102 85 153 0.9 8.7 0.00 0.00 0.00 47 1011.1
20260508054004 85 188 3.5 8.7 0.00 0.00 0.00 46 1011.1
20260508053903 85 177 4.3 8.7 0.00 0.00 0.00 46 1011.1
20260508053801 85 171 2.6 8.7 0.00 0.00 0.00 47 1011.1
20260508053701 85 151 2.6 8.7 0.00 0.00 0.00 47 1011.1
20260508053401 85 195 5.2 8.7 0.00 0.00 0.00 46 1011.2
20260508053301 85 155 6.1 8.7 0.00 0.00 0.00 47 1011.1
20260508053203 85 181 4.3 10.4 0.00 0.00 0.00 47 1011.1
20260508053102 85 169 3.5 8.7 0.00 0.00 0.00 47 1011.1
20260508053006 85 161 4.3 8.7 0.00 0.00 0.00 47 1011.2
20260508052901 85 169 6.1 8.7 0.00 0.00 0.00 47 1011.1
20260508052803 85 138 5.2 9.6 0.00 0.00 0.00 47 1011.1
20260508052659 85 103 3.5 9.6 0.00 0.00 0.00 47 1011.1
20260508052601 85 151 3.5 9.6 0.00 0.00 0.00 47 1011.1
20260508052506 85 103 4.3 9.6 0.00 0.00 0.00 47 1011.2
20260508052403 85 163 5.2 9.6 0.00 0.00 0.00 47 1011.2
20260508052306 85 157 5.2 9.6 0.00 0.00 0.00 47 1011.1
20260508052201 85 158 4.3 9.6 0.00 0.00 0.00 46 1011.1
20260508052102 85 175 6.1 9.6 0.00 0.00 0.00 46 1011.2
20260508052005 85 157 6.1 9.6 0.00 0.00 0.00 47 1011.2
20260508051804 84 148 3.5 7.8 0.00 0.00 0.00 47 1011.2
20260508051702 84 140 3.5 7.8 0.00 0.00 0.00 47 1011.2
20260508051602 84 173 4.3 7.8 0.00 0.00 0.00 47 1011.2
20260508051503 84 131 5.2 7.8 0.00 0.00 0.00 47 1011.2
20260508051401 84 125 4.3 7.8 0.00 0.00 0.00 47 1011.2
20260508051302 84 136 2.6 7.8 0.00 0.00 0.00 47 1011.2
20260508051202 84 168 3.5 7.8 0.00 0.00 0.00 48 1011.3
20260508050901 84 126 4.3 9.6 0.00 0.00 0.00 47 1011.2
20260508050801 84 153 5.2 9.6 0.00 0.00 0.00 47 1011.2
20260508050702 84 173 5.2 9.6 0.00 0.00 0.00 47 1011.2
20260508050601 84 124 5.2 9.6 0.00 0.00 0.00 47 1011.2
20260508050505 84 153 5.2 9.6 0.00 0.00 0.00 47 1011.2
20260508050202 84 138 6.1 9.6 0.00 0.00 0.00 48 1011.2
20260508050009 84 132 3.5 9.6 0.00 0.00 0.00 48 1011.3
20260508045903 84 140 3.5 9.6 0.00 0.00 0.00 48 1011.3
20260508045802 84 91 5.2 9.6 0.00 0.00 0.00 49 1011.3
20260508045702 84 148 4.3 9.6 0.00 0.00 0.00 48 1011.3
20260508045603 84 128 3.5 9.6 0.00 0.00 0.00 49 1011.3
20260508045505 84 91 4.3 9.6 0.00 0.00 0.00 48 1011.3
20260508045306 84 153 6.1 9.6 0.00 0.00 0.00 48 1011.3
20260508045204 84 161 7.0 9.6 0.00 0.00 0.00 48 1011.2
20260508045105 84 165 6.1 10.4 0.00 0.00 0.00 49 1011.2
20260508045017 84 181 4.3 8.7 0.00 0.00 0.00 49 1011.2
20260508044904 84 128 2.6 9.6 0.00 0.00 0.00 49 1011.1
20260508044805 84 132 3.5 9.6 0.00 0.00 0.00 50 1011.1
20260508044700 84 146 3.5 9.6 0.00 0.00 0.00 49 1011.2
20260508044605 84 154 3.5 9.6 0.00 0.00 0.00 49 1011.2
20260508044506 84 180 4.3 9.6 0.00 0.00 0.00 50 1011.2
20260508044404 84 179 5.2 9.6 0.00 0.00 0.00 50 1011.1
20260508044303 84 154 4.3 9.6 0.00 0.00 0.00 50 1011.2
20260508044203 83 173 5.2 9.6 0.00 0.00 0.00 49 1011.2
20260508044105 83 145 5.2 9.6 0.00 0.00 0.00 49 1011.2
20260508044006 83 163 3.5 9.6 0.00 0.00 0.00 50 1011.2
20260508043903 83 167 4.3 9.6 0.00 0.00 0.00 50 1011.2
20260508043807 83 130 5.2 9.6 0.00 0.00 0.00 49 1011.2
20260508043704 83 146 5.2 9.6 0.00 0.00 0.00 49 1011.2
20260508043505 83 140 7.0 9.6 0.00 0.00 0.00 49 1011.1
20260508043304 83 142 5.2 8.7 0.00 0.00 0.00 50 1011.1
20260508043204 83 142 3.5 8.7 0.00 0.00 0.00 51 1011.1
20260508043106 83 159 2.6 8.7 0.00 0.00 0.00 52 1011.1
20260508043008 83 184 2.6 8.7 0.00 0.00 0.00 51 1011.1
20260508042905 83 175 3.5 8.7 0.00 0.00 0.00 51 1011.1
20260508042802 83 161 4.3 8.7 0.00 0.00 0.00 51 1011.1
20260508042704 83 95 5.2 8.7 0.00 0.00 0.00 51 1011.1
20260508042602 83 188 4.3 8.7 0.00 0.00 0.00 51 1011.2
20260508042504 83 137 5.2 8.7 0.00 0.00 0.00 51 1011.2
20260508042407 83 148 6.1 8.7 0.00 0.00 0.00 51 1011.2
20260508042203 83 167 3.5 8.7 0.00 0.00 0.00 53 1011.1
20260508042108 83 151 4.3 8.7 0.00 0.00 0.00 53 1011.1
20260508042008 82 101 5.2 8.7 0.00 0.00 0.00 53 1011.1
20260508041903 82 144 6.1 8.7 0.00 0.00 0.00 53 1011.1
20260508041804 82 117 5.2 8.7 0.00 0.00 0.00 53 1011.1
20260508041704 82 148 4.3 8.7 0.00 0.00 0.00 54 1011.1
20260508041606 82 140 4.3 8.7 0.00 0.00 0.00 53 1011.1
20260508041504 82 119 5.2 8.7 0.00 0.00 0.00 54 1011.1
20260508041303 82 132 4.3 8.7 0.00 0.00 0.00 53 1011.1
20260508041104 82 171 3.5 8.7 0.00 0.00 0.00 54 1011.1
20260508041007 82 189 2.6 8.7 0.00 0.00 0.00 54 1011.1
20260508040903 82 173 2.6 8.7 0.00 0.00 0.00 54 1011.2
20260508040805 82 174 2.6 8.7 0.00 0.00 0.00 54 1011.2
20260508040604 82 113 5.2 8.7 0.00 0.00 0.00 55 1011.2
20260508040405 82 144 2.6 7.8 0.00 0.00 0.00 55 1011.1
20260508040303 82 105 3.5 7.8 0.00 0.00 0.00 54 1011.2
20260508040203 81 149 3.5 7.8 0.00 0.00 0.00 55 1011.2
20260508040007 81 134 4.3 7.8 0.00 0.00 0.00 55 1011.1
20260508035759 81 60 2.6 7.0 0.00 0.00 0.00 56 1011.0
20260508035702 81 118 2.6 7.0 0.00 0.00 0.00 56 1011.0
20260508035603 81 161 2.6 7.0 0.00 0.00 0.00 56 1011.0
20260508035505 81 62 2.6 7.0 0.00 0.00 0.00 56 1011.0
20260508035403 81 143 2.6 7.8 0.00 0.00 0.00 56 1011.0
20260508035306 81 80 2.6 7.8 0.00 0.00 0.00 56 1011.0
20260508035202 81 144 3.5 7.8 0.00 0.00 0.00 56 1011.0
20260508035102 81 134 3.5 7.8 0.00 0.00 0.00 56 1011.0
20260508035006 81 137 3.5 7.8 0.00 0.00 0.00 56 1011.0
20260508034901 81 130 3.5 8.7 0.00 0.00 0.00 56 1011.0
20260508034803 81 79 4.3 8.7 0.00 0.00 0.00 56 1011.0
20260508034701 81 129 5.2 8.7 0.00 0.00 0.00 56 1011.0
20260508034601 81 113 4.3 8.7 0.00 0.00 0.00 56 1011.1
20260508034404 81 156 2.6 8.7 0.00 0.00 0.00 57 1011.2
20260508034301 80 124 4.3 8.7 0.00 0.00 0.00 57 1011.1
20260508034202 80 112 5.2 8.7 0.00 0.00 0.00 57 1011.1
20260508034004 80 133 2.6 7.0 0.00 0.00 0.00 57 1011.2
20260508033901 80 112 2.6 7.0 0.00 0.00 0.00 57 1011.1
20260508033802 80 134 2.6 7.0 0.00 0.00 0.00 57 1011.2
20260508033703 80 150 2.6 7.0 0.00 0.00 0.00 57 1011.1
20260508033602 80 69 2.6 7.0 0.00 0.00 0.00 57 1011.1
20260508033401 80 103 3.5 7.0 0.00 0.00 0.00 58 1011.2
20260508033303 80 15 2.6 7.0 0.00 0.00 0.00 59 1011.2
20260508033101 80 61 2.6 7.0 0.00 0.00 0.00 59 1011.2
20260508033006 80 72 1.7 6.1 0.00 0.00 0.00 60 1011.2
20260508032902 80 20 1.7 8.7 0.00 0.00 0.00 60 1011.3
20260508032802 80 56 1.7 8.7 0.00 0.00 0.00 60 1011.2
20260508032700 80 153 2.6 8.7 0.00 0.00 0.00 60 1011.2
20260508032600 80 105 2.6 8.7 0.00 0.00 0.00 60 1011.2
20260508032503 80 109 2.6 8.7 0.00 0.00 0.00 60 1011.3
20260508032405 80 131 3.5 8.7 0.00 0.00 0.00 59 1011.2
20260508032306 80 137 4.3 8.7 0.00 0.00 0.00 60 1011.2
20260508032201 80 108 3.5 8.7 0.00 0.00 0.00 60 1011.3
20260508032102 80 136 3.5 7.8 0.00 0.00 0.00 60 1011.2
20260508032005 80 119 3.5 7.8 0.00 0.00 0.00 60 1011.2
20260508031901 79 121 3.5 7.8 0.00 0.00 0.00 60 1011.2
20260508031801 79 96 5.2 7.8 0.00 0.00 0.00 60 1011.3
20260508031701 79 53 3.5 7.8 0.00 0.00 0.00 60 1011.3
20260508031602 79 107 1.7 6.1 0.00 0.00 0.00 61 1011.3
20260508031503 79 79 3.5 6.1 0.00 0.00 0.00 61 1011.2
20260508031359 79 113 2.6 6.1 0.00 0.00 0.00 61 1011.2
20260508031301 79 108 1.7 6.1 0.00 0.00 0.00 61 1011.2
20260508031201 79 152 1.7 6.1 0.00 0.00 0.00 61 1011.2
20260508031004 79 130 2.6 7.0 0.00 0.00 0.00 61 1011.2
20260508030904 79 121 2.6 7.0 0.00 0.00 0.00 61 1011.2
20260508030800 79 75 2.6 7.0 0.00 0.00 0.00 61 1011.2
20260508030601 79 73 3.5 8.7 0.00 0.00 0.00 62 1011.2
20260508030506 79 136 3.5 8.7 0.00 0.00 0.00 62 1011.2
20260508030405 78 74 4.3 8.7 0.00 0.00 0.00 62 1011.2
20260508030104 78 132 4.3 8.7 0.00 0.00 0.00 62 1011.2
20260508030009 78 123 4.3 8.7 0.00 0.00 0.00 62 1011.2
20260508025902 78 113 4.3 8.7 0.00 0.00 0.00 62 1011.1
20260508025803 78 55 4.3 7.8 0.00 0.00 0.00 62 1011.1
20260508025603 78 72 4.3 9.6 0.00 0.00 0.00 62 1011.1
20260508025505 78 109 3.5 9.6 0.00 0.00 0.00 62 1011.1
20260508025305 78 99 5.2 9.6 0.00 0.00 0.00 62 1011.1
20260508025204 78 103 5.2 9.6 0.00 0.00 0.00 62 1011.1
20260508025106 78 110 4.3 9.6 0.00 0.00 0.00 62 1011.2
20260508025005 78 65 5.2 9.6 0.00 0.00 0.00 62 1011.1
20260508024900 78 108 5.2 9.6 0.00 0.00 0.00 63 1011.1
20260508024602 77 75 4.3 9.6 0.00 0.00 0.00 63 1011.1
20260508024403 77 155 3.5 9.6 0.00 0.00 0.00 63 1011.0
20260508024304 77 109 5.2 9.6 0.00 0.00 0.00 63 1011.0
20260508024203 77 128 6.1 9.6 0.00 0.00 0.00 63 1011.1
20260508024006 77 111 6.1 8.7 0.00 0.00 0.00 63 1011.0
20260508023903 77 136 4.3 8.7 0.00 0.00 0.00 63 1011.0
20260508023602 77 132 5.2 7.8 0.00 0.00 0.00 63 1011.0
20260508023504 77 109 3.5 7.8 0.00 0.00 0.00 63 1011.0
20260508023304 77 157 1.7 8.7 0.00 0.00 0.00 64 1010.9
20260508023203 77 98 1.7 8.7 0.00 0.00 0.00 63 1011.0
20260508023106 77 94 1.7 8.7 0.00 0.00 0.00 63 1011.0
20260508023030 77 91 3.5 8.7 0.00 0.00 0.00 63 1010.9
20260508022820 77 73 5.2 8.7 0.00 0.00 0.00 63 1011.0
20260508022722 77 85 6.1 8.7 0.00 0.00 0.00 63 1010.9
20260508022405 77 96 4.3 7.8 0.00 0.00 0.00 63 1011.0
20260508022306 77 96 4.3 7.8 0.00 0.00 0.00 64 1011.0
20260508022204 77 76 5.2 7.8 0.00 0.00 0.00 64 1010.9
20260508022103 77 116 3.5 7.8 0.00 0.00 0.00 64 1011.0
20260508022008 77 105 2.6 7.0 0.00 0.00 0.00 64 1011.0
20260508021902 77 104 3.5 7.0 0.00 0.00 0.00 64 1010.9
20260508021803 76 115 3.5 7.0 0.00 0.00 0.00 64 1010.9
20260508021703 76 101 2.6 8.7 0.00 0.00 0.00 64 1011.0
20260508021603 76 32 2.6 8.7 0.00 0.00 0.00 64 1011.0
20260508021504 76 90 4.3 8.7 0.00 0.00 0.00 64 1011.0
20260508021402 76 59 4.3 8.7 0.00 0.00 0.00 64 1011.0
20260508021305 76 103 2.6 8.7 0.00 0.00 0.00 65 1011.0
20260508021204 76 106 2.6 8.7 0.00 0.00 0.00 64 1011.0
20260508021010 76 128 3.5 8.7 0.00 0.00 0.00 64 1011.0
20260508020904 76 123 4.3 8.7 0.00 0.00 0.00 64 1011.0
20260508020803 76 109 5.2 7.8 0.00 0.00 0.00 64 1011.1
20260508020705 76 108 5.2 7.8 0.00 0.00 0.00 64 1011.0
20260508020510 76 140 4.3 7.8 0.00 0.00 0.00 65 1011.0
20260508020403 76 132 4.3 7.8 0.00 0.00 0.00 65 1011.0
20260508020304 76 104 3.5 7.8 0.00 0.00 0.00 65 1011.0
20260508020204 76 130 4.3 7.8 0.00 0.00 0.00 65 1011.0
20260508020104 76 157 4.3 9.6 0.00 0.00 0.00 65 1011.0
20260508020009 76 117 3.5 9.6 0.00 0.00 0.00 65 1011.0
20260508015903 76 10 2.6 9.6 0.00 0.00 0.00 65 1010.9
20260508015806 76 138 2.6 9.6 0.00 0.00 0.00 65 1010.9
20260508015704 76 107 3.5 9.6 0.00 0.00 0.00 65 1010.9
20260508015604 76 76 4.3 9.6 0.00 0.00 0.00 65 1010.8
20260508015506 76 109 5.2 9.6 0.00 0.00 0.00 65 1010.9
20260508015203 76 102 7.0 9.6 0.00 0.00 0.00 65 1010.8
20260508015104 76 119 4.3 7.8 0.00 0.00 0.00 65 1010.8
20260508015008 76 105 2.6 7.0 0.00 0.00 0.00 65 1010.8
20260508014905 76 155 1.7 7.0 0.00 0.00 0.00 65 1010.8
20260508014804 76 99 1.7 7.0 0.00 0.00 0.00 65 1010.8
20260508014702 76 167 3.5 7.0 0.00 0.00 0.00 65 1010.9
20260508014605 76 146 3.5 7.0 0.00 0.00 0.00 65 1010.9
20260508014505 76 91 3.5 7.8 0.00 0.00 0.00 65 1010.8
20260508014406 76 117 4.3 7.8 0.00 0.00 0.00 65 1010.9
20260508014304 76 121 4.3 7.8 0.00 0.00 0.00 65 1010.7
20260508014205 76 122 3.5 7.8 0.00 0.00 0.00 65 1010.7
20260508014105 76 113 2.6 7.8 0.00 0.00 0.00 65 1010.7
20260508014006 76 87 3.5 7.8 0.00 0.00 0.00 65 1010.6
20260508013803 76 122 4.3 7.8 0.00 0.00 0.00 65 1010.6
20260508013604 76 152 3.5 7.0 0.00 0.00 0.00 65 1010.5
20260508013404 76 123 3.5 8.7 0.00 0.00 0.00 65 1010.4
20260508013303 76 120 2.6 8.7 0.00 0.00 0.00 65 1010.4
20260508013204 76 128 3.5 8.7 0.00 0.00 0.00 65 1010.5
20260508013102 76 111 4.3 8.7 0.00 0.00 0.00 65 1010.5
20260508013005 76 64 3.5 8.7 0.00 0.00 0.00 65 1010.5
20260508012904 76 123 2.6 8.7 0.00 0.00 0.00 65 1010.5
20260508012804 76 109 4.3 8.7 0.00 0.00 0.00 65 1010.5
20260508012602 76 112 5.2 8.7 0.00 0.00 0.00 65 1010.4
20260508012403 76 107 4.3 8.7 0.00 0.00 0.00 65 1010.4
20260508012307 76 103 2.6 8.7 0.00 0.00 0.00 65 1010.4
20260508012007 76 118 3.5 8.7 0.00 0.00 0.00 65 1010.4
20260508011905 76 97 3.5 8.7 0.00 0.00 0.00 65 1010.4
20260508011803 76 156 5.2 8.7 0.00 0.00 0.00 65 1010.4
20260508011704 76 89 5.2 8.7 0.00 0.00 0.00 65 1010.3
20260508011604 76 99 4.3 8.7 0.00 0.00 0.00 65 1010.4
20260508011400 76 104 6.1 8.7 0.00 0.00 0.00 65 1010.3
20260508011304 76 103 4.3 8.7 0.00 0.00 0.00 66 1010.3
20260508011204 76 114 3.5 7.8 0.00 0.00 0.00 66 1010.3
20260508011103 76 114 3.5 7.8 0.00 0.00 0.00 66 1010.3
20260508011005 76 100 3.5 7.8 0.00 0.00 0.00 66 1010.4
20260508010903 76 113 2.6 7.8 0.00 0.00 0.00 66 1010.4
20260508010804 76 86 1.7 7.8 0.00 0.00 0.00 66 1010.3
20260508010604 76 113 4.3 7.8 0.00 0.00 0.00 66 1010.3
20260508010506 76 119 4.3 7.8 0.00 0.00 0.00 66 1010.4
20260508010405 75 137 3.5 7.8 0.00 0.00 0.00 66 1010.3
20260508010303 75 88 4.3 7.8 0.00 0.00 0.00 66 1010.3
20260508010203 75 110 5.2 7.8 0.00 0.00 0.00 66 1010.3
20260508010104 75 104 3.5 7.8 0.00 0.00 0.00 67 1010.2
20260508010007 75 127 2.6 8.7 0.00 0.00 0.00 67 1010.3
20260508005902 75 107 1.7 8.7 0.00 0.00 0.00 67 1010.3
20260508005801 75 109 2.6 8.7 0.00 0.00 0.00 67 1010.2
20260508005701 75 143 3.5 8.7 0.00 0.00 0.00 67 1010.2
20260508005604 75 107 2.6 8.7 0.00 0.00 0.00 67 1010.2
20260508005504 75 111 2.6 8.7 0.00 0.00 0.00 67 1010.2
20260508005410 75 76 4.3 8.7 0.00 0.00 0.00 67 1010.2
20260508005222 75 117 4.3 8.7 0.00 0.00 0.00 67 1010.1
20260508004204 75 92 2.6 7.8 0.00 0.00 0.00 68 1010.2
20260508004005 75 106 3.5 7.8 0.00 0.00 0.00 68 1010.1
20260508003906 75 94 2.6 7.8 0.00 0.00 0.00 68 1010.1
20260508003405 75 134 3.5 7.8 0.00 0.00 0.00 68 1010.0
20260508003102 75 86 3.5 7.0 0.00 0.00 0.00 68 1010.1
20260508003006 75 83 3.5 7.0 0.00 0.00 0.00 68 1010.1
20260508002901 75 82 3.5 7.0 0.00 0.00 0.00 68 1010.1
20260508002800 75 80 3.5 7.0 0.00 0.00 0.00 68 1010.0
20260508002702 75 83 2.6 7.0 0.00 0.00 0.00 68 1010.1
20260508002604 75 84 1.7 6.1 0.00 0.00 0.00 68 1010.1
20260508002503 75 81 1.7 6.1 0.00 0.00 0.00 68 1010.1
20260508002402 75 98 2.6 6.1 0.00 0.00 0.00 68 1010.1
20260508002306 75 139 2.6 6.1 0.00 0.00 0.00 68 1010.1
20260508002201 75 133 2.6 6.1 0.00 0.00 0.00 68 1010.1
20260508002101 75 141 1.7 3.5 0.00 0.00 0.00 68 1010.1
20260508002006 75 80 1.7 3.5 0.00 0.00 0.00 68 1010.0
20260508001802 75 53 0.9 3.5 0.00 0.00 0.00 67 1010.0
20260508001702 76 32 1.7 3.5 0.00 0.00 0.00 67 1010.0
20260508001503 75 76 1.7 3.5 0.00 0.00 0.00 67 1010.0
20260508001402 76 88 0.9 3.5 0.00 0.00 0.00 67 1010.0
20260508001202 76 135 0.9 3.5 0.00 0.00 0.00 67 1009.9
20260508001102 76 112 1.7 3.5 0.00 0.00 0.00 67 1010.0
20260508001004 76 89 0.9 3.5 0.00 0.00 0.00 67 1010.0
20260508000906 76 116 0.9 3.5 0.00 0.00 0.00 67 1010.0